Wetterdaten: Dienstag, 24.02.2026
Datum Zeit Temp. Aussen Temp. o. S. Temp +5cm Feuchte Auss Luftdruck Regen Sonnenschein Regendauer Solar Windböen Empfang
24.02.2026 00:00 9,3 °C 8,3 °C 4,4 °C 96 % 1016,5 hPa 0,0 l/m² 0 min 0 min 0 W/m² 6,4 km/h (2 Bft) 95,74 %
24.02.2026 00:02 9,3 °C 8,3 °C 4,4 °C 96 % 1016,6 hPa 0,0 l/m² 0 min 0 min 0 W/m² 6,4 km/h (2 Bft) 91,43 %
24.02.2026 00:04 9,3 °C 8,3 °C 4,4 °C 96 % 1016,6 hPa 0,0 l/m² 0 min 0 min 0 W/m² 9,7 km/h (2 Bft) 95,83 %
24.02.2026 00:07 9,3 °C 8,3 °C 4,4 °C 96 % 1016,7 hPa 0,0 l/m² 0 min 0 min 0 W/m² 9,7 km/h (2 Bft) 95,83 %
24.02.2026 00:08 9,4 °C 8,3 °C 4,4 °C 96 % 1016,7 hPa 0,0 l/m² 0 min 0 min 0 W/m² 9,7 km/h (2 Bft) 95,10 %
24.02.2026 00:14 9,4 °C 8,3 °C 4,4 °C 96 % 1016,7 hPa 0,0 l/m² 0 min 0 min 0 W/m² 16,1 km/h (3 Bft) 100,00 %
24.02.2026 00:16 9,4 °C 8,3 °C 4,4 °C 96 % 1016,7 hPa 0,0 l/m² 0 min 0 min 0 W/m² 6,4 km/h (2 Bft) 87,50 %
24.02.2026 00:18 9,4 °C 8,3 °C 4,4 °C 96 % 1016,7 hPa 0,0 l/m² 0 min 0 min 0 W/m² 6,4 km/h (2 Bft) 97,87 %
24.02.2026 00:20 9,4 °C 8,9 °C 4,4 °C 96 % 1016,7 hPa 0,0 l/m² 0 min 0 min 0 W/m² 9,7 km/h (2 Bft) 95,74 %
24.02.2026 00:22 9,4 °C 8,9 °C 4,4 °C 96 % 1016,7 hPa 0,0 l/m² 0 min 0 min 0 W/m² 12,9 km/h (3 Bft) 95,74 %
24.02.2026 00:24 9,4 °C 8,9 °C 4,4 °C 96 % 1016,7 hPa 0,0 l/m² 0 min 0 min 0 W/m² 12,9 km/h (3 Bft) 100,00 %
24.02.2026 00:26 9,4 °C 8,9 °C 4,4 °C 96 % 1016,7 hPa 0,0 l/m² 0 min 0 min 0 W/m² 12,9 km/h (3 Bft) 97,87 %
24.02.2026 00:28 9,4 °C 8,9 °C 4,4 °C 96 % 1016,7 hPa 0,0 l/m² 0 min 0 min 0 W/m² 6,4 km/h (2 Bft) 97,83 %
24.02.2026 00:30 9,4 °C 8,9 °C 4,4 °C 96 % 1016,6 hPa 0,0 l/m² 0 min 0 min 0 W/m² 9,7 km/h (2 Bft) 95,74 %
24.02.2026 00:32 9,4 °C 8,9 °C 4,4 °C 96 % 1016,7 hPa 0,0 l/m² 0 min 0 min 0 W/m² 12,9 km/h (3 Bft) 97,87 %
24.02.2026 00:34 9,4 °C 8,9 °C 4,4 °C 96 % 1016,7 hPa 0,0 l/m² 0 min 0 min 0 W/m² 9,7 km/h (2 Bft) 100,00 %
24.02.2026 00:36 9,4 °C 8,9 °C 4,4 °C 96 % 1016,7 hPa 0,0 l/m² 0 min 0 min 0 W/m² 16,1 km/h (3 Bft) 97,87 %
24.02.2026 00:38 9,4 °C 8,9 °C 4,4 °C 96 % 1016,6 hPa 0,0 l/m² 0 min 0 min 0 W/m² 6,4 km/h (2 Bft) 100,00 %
24.02.2026 00:40 9,4 °C 8,9 °C 4,4 °C 96 % 1016,6 hPa 0,0 l/m² 0 min 0 min 0 W/m² 6,4 km/h (2 Bft) 100,00 %
24.02.2026 00:42 9,4 °C 8,9 °C 4,4 °C 96 % 1016,5 hPa 0,0 l/m² 0 min 0 min 0 W/m² 6,4 km/h (2 Bft) 97,87 %
24.02.2026 00:44 9,4 °C 8,9 °C 4,4 °C 96 % 1016,5 hPa 0,0 l/m² 0 min 0 min 0 W/m² 9,7 km/h (2 Bft) 100,00 %
24.02.2026 00:46 9,4 °C 8,9 °C 4,4 °C 96 % 1016,5 hPa 0,0 l/m² 0 min 0 min 0 W/m² 9,7 km/h (2 Bft) 100,00 %
24.02.2026 00:48 9,4 °C 8,9 °C 4,4 °C 96 % 1016,6 hPa 0,0 l/m² 0 min 0 min 0 W/m² 3,2 km/h (1 Bft) 100,00 %
24.02.2026 00:50 9,4 °C 8,9 °C 4,4 °C 96 % 1016,6 hPa 0,0 l/m² 0 min 0 min 0 W/m² 3,2 km/h (1 Bft) 100,00 %
24.02.2026 00:52 9,5 °C 8,9 °C 4,4 °C 96 % 1016,7 hPa 0,0 l/m² 0 min 0 min 0 W/m² 6,4 km/h (2 Bft) 97,83 %
24.02.2026 00:54 9,4 °C 8,9 °C 4,4 °C 96 % 1016,6 hPa 0,0 l/m² 0 min 0 min 0 W/m² 6,4 km/h (2 Bft) 97,87 %
24.02.2026 00:56 9,4 °C 8,9 °C 4,4 °C 96 % 1016,6 hPa 0,0 l/m² 0 min 0 min 0 W/m² 12,9 km/h (3 Bft) 100,00 %
24.02.2026 00:58 9,4 °C 8,9 °C 4,4 °C 96 % 1016,6 hPa 0,0 l/m² 0 min 0 min 0 W/m² 6,4 km/h (2 Bft) 97,87 %
24.02.2026 01:00 9,4 °C 8,3 °C 4,4 °C 96 % 1016,6 hPa 0,0 l/m² 0 min 0 min 0 W/m² 6,4 km/h (2 Bft) 95,74 %
24.02.2026 01:02 9,4 °C 8,3 °C 4,4 °C 96 % 1016,6 hPa 0,0 l/m² 0 min 0 min 0 W/m² 6,4 km/h (2 Bft) 97,83 %
24.02.2026 01:04 9,4 °C 8,3 °C 4,4 °C 96 % 1016,6 hPa 0,0 l/m² 0 min 0 min 0 W/m² 6,4 km/h (2 Bft) 100,00 %
24.02.2026 01:06 9,4 °C 8,3 °C 4,4 °C 96 % 1016,6 hPa 0,0 l/m² 0 min 0 min 0 W/m² 6,4 km/h (2 Bft) 100,00 %
24.02.2026 01:08 9,4 °C 8,9 °C 4,4 °C 96 % 1016,7 hPa 0,0 l/m² 0 min 0 min 0 W/m² 16,1 km/h (3 Bft) 100,00 %
24.02.2026 01:10 9,4 °C 8,9 °C 4,4 °C 96 % 1016,7 hPa 0,0 l/m² 0 min 0 min 0 W/m² 6,4 km/h (2 Bft) 97,87 %
24.02.2026 01:12 9,4 °C 8,9 °C 4,4 °C 96 % 1016,7 hPa 0,0 l/m² 0 min 0 min 0 W/m² 6,4 km/h (2 Bft) 97,87 %
24.02.2026 01:14 9,4 °C 8,9 °C 4,4 °C 96 % 1016,7 hPa 0,0 l/m² 0 min 0 min 0 W/m² 12,9 km/h (3 Bft) 97,83 %
24.02.2026 01:16 9,4 °C 8,3 °C 4,4 °C 96 % 1016,8 hPa 0,0 l/m² 0 min 0 min 0 W/m² 3,2 km/h (1 Bft) 97,87 %
24.02.2026 01:18 9,4 °C 8,3 °C 4,4 °C 96 % 1016,8 hPa 0,0 l/m² 0 min 0 min 0 W/m² 3,2 km/h (1 Bft) 97,87 %
24.02.2026 01:20 9,4 °C 8,3 °C 4,4 °C 96 % 1016,8 hPa 0,0 l/m² 0 min 0 min 0 W/m² 6,4 km/h (2 Bft) 97,87 %
24.02.2026 01:22 9,4 °C 8,3 °C 4,4 °C 96 % 1016,8 hPa 0,0 l/m² 0 min 0 min 0 W/m² 6,4 km/h (2 Bft) 97,87 %
24.02.2026 01:24 9,4 °C 8,3 °C 4,4 °C 96 % 1016,8 hPa 0,0 l/m² 0 min 0 min 0 W/m² 9,7 km/h (2 Bft) 97,87 %
24.02.2026 01:26 9,4 °C 8,3 °C 4,4 °C 96 % 1016,8 hPa 0,0 l/m² 0 min 0 min 0 W/m² 12,9 km/h (3 Bft) 97,83 %
24.02.2026 01:28 9,4 °C 8,9 °C 4,4 °C 96 % 1016,8 hPa 0,0 l/m² 0 min 0 min 0 W/m² 12,9 km/h (3 Bft) 95,74 %
24.02.2026 01:30 9,4 °C 8,9 °C 4,4 °C 96 % 1016,8 hPa 0,0 l/m² 0 min 0 min 0 W/m² 6,4 km/h (2 Bft) 97,87 %
24.02.2026 01:32 9,4 °C 8,9 °C 4,4 °C 96 % 1016,7 hPa 0,0 l/m² 0 min 0 min 0 W/m² 16,1 km/h (3 Bft) 97,87 %
24.02.2026 01:34 9,4 °C 8,9 °C 4,4 °C 96 % 1016,8 hPa 0,0 l/m² 0 min 0 min 0 W/m² 12,9 km/h (3 Bft) 97,87 %
24.02.2026 01:36 9,4 °C 8,9 °C 4,4 °C 96 % 1016,7 hPa 0,0 l/m² 0 min 0 min 0 W/m² 12,9 km/h (3 Bft) 95,74 %
24.02.2026 01:38 9,4 °C 8,9 °C 4,4 °C 96 % 1016,7 hPa 0,0 l/m² 0 min 0 min 0 W/m² 12,9 km/h (3 Bft) 97,83 %
24.02.2026 01:40 9,4 °C 8,9 °C 4,4 °C 96 % 1016,7 hPa 0,0 l/m² 0 min 0 min 0 W/m² 6,4 km/h (2 Bft) 97,87 %
24.02.2026 01:42 9,4 °C 8,9 °C 4,4 °C 96 % 1016,8 hPa 0,0 l/m² 0 min 0 min 0 W/m² 12,9 km/h (3 Bft) 97,87 %
24.02.2026 01:44 9,4 °C 8,9 °C 4,4 °C 96 % 1016,8 hPa 0,0 l/m² 0 min 0 min 0 W/m² 12,9 km/h (3 Bft) 95,74 %
24.02.2026 01:46 9,4 °C 8,9 °C 4,4 °C 96 % 1016,8 hPa 0,0 l/m² 0 min 0 min 0 W/m² 6,4 km/h (2 Bft) 97,87 %
24.02.2026 01:48 9,4 °C 8,9 °C 4,4 °C 96 % 1016,8 hPa 0,0 l/m² 0 min 2 min 0 W/m² 19,3 km/h (3 Bft) 95,74 %
24.02.2026 01:50 9,4 °C 8,9 °C 4,4 °C 96 % 1016,8 hPa 0,0 l/m² 0 min 0 min 0 W/m² 6,4 km/h (2 Bft) 97,83 %
24.02.2026 01:52 9,4 °C 8,9 °C 4,4 °C 96 % 1016,9 hPa 0,0 l/m² 0 min 0 min 0 W/m² 6,4 km/h (2 Bft) 95,74 %
24.02.2026 01:54 9,4 °C 8,9 °C 4,4 °C 96 % 1017,0 hPa 0,0 l/m² 0 min 0 min 0 W/m² 16,1 km/h (3 Bft) 91,49 %
24.02.2026 01:56 9,4 °C 8,9 °C 4,4 °C 96 % 1016,9 hPa 0,0 l/m² 0 min 2 min 0 W/m² 12,9 km/h (3 Bft) 95,74 %
24.02.2026 01:58 9,4 °C 8,9 °C 4,4 °C 96 % 1016,9 hPa 0,0 l/m² 0 min 0 min 0 W/m² 6,4 km/h (2 Bft) 93,62 %
24.02.2026 02:00 9,4 °C 8,9 °C 4,4 °C 96 % 1016,9 hPa 0,0 l/m² 0 min 0 min 0 W/m² 6,4 km/h (2 Bft) 95,74 %
24.02.2026 02:02 9,4 °C 8,9 °C 4,4 °C 96 % 1016,9 hPa 0,0 l/m² 0 min 0 min 0 W/m² 12,9 km/h (3 Bft) 93,48 %
24.02.2026 02:04 9,4 °C 8,9 °C 4,4 °C 96 % 1017,0 hPa 0,0 l/m² 0 min 0 min 0 W/m² 12,9 km/h (3 Bft) 97,87 %
24.02.2026 02:06 9,4 °C 8,9 °C 4,4 °C 96 % 1017,0 hPa 0,0 l/m² 0 min 0 min 0 W/m² 6,4 km/h (2 Bft) 95,74 %
24.02.2026 02:08 9,4 °C 8,9 °C 4,4 °C 97 % 1017,0 hPa 0,0 l/m² 0 min 0 min 0 W/m² 12,9 km/h (3 Bft) 95,83 %
24.02.2026 02:10 9,4 °C 8,9 °C 4,4 °C 96 % 1017,0 hPa 0,0 l/m² 0 min 2 min 0 W/m² 16,1 km/h (3 Bft) 97,14 %
24.02.2026 02:14 9,4 °C 8,9 °C 4,4 °C 96 % 1016,9 hPa 0,0 l/m² 0 min 0 min 0 W/m² 16,1 km/h (3 Bft) 94,34 %
24.02.2026 02:16 9,4 °C 8,9 °C 4,4 °C 96 % 1016,9 hPa 0,0 l/m² 0 min 0 min 0 W/m² 6,4 km/h (2 Bft) 93,62 %
24.02.2026 02:18 9,4 °C 8,9 °C 4,4 °C 97 % 1016,9 hPa 0,0 l/m² 0 min 0 min 0 W/m² 12,9 km/h (3 Bft) 95,74 %
24.02.2026 02:20 9,4 °C 8,9 °C 4,4 °C 97 % 1016,9 hPa 0,0 l/m² 0 min 0 min 0 W/m² 12,9 km/h (3 Bft) 95,74 %
24.02.2026 02:22 9,4 °C 8,9 °C 4,4 °C 97 % 1016,9 hPa 0,0 l/m² 0 min 0 min 0 W/m² 16,1 km/h (3 Bft) 97,87 %
24.02.2026 02:24 9,4 °C 8,3 °C 4,4 °C 97 % 1016,9 hPa 0,0 l/m² 0 min 0 min 0 W/m² 16,1 km/h (3 Bft) 100,00 %
24.02.2026 02:26 9,4 °C 8,3 °C 4,4 °C 96 % 1016,9 hPa 0,0 l/m² 0 min 0 min 0 W/m² 22,5 km/h (4 Bft) 97,83 %
24.02.2026 02:28 9,4 °C 8,3 °C 4,4 °C 97 % 1016,9 hPa 0,0 l/m² 0 min 0 min 0 W/m² 12,9 km/h (3 Bft) 97,87 %
24.02.2026 02:30 9,3 °C 8,3 °C 4,4 °C 97 % 1016,9 hPa 0,0 l/m² 0 min 0 min 0 W/m² 12,9 km/h (3 Bft) 97,87 %
24.02.2026 02:32 9,3 °C 8,3 °C 4,4 °C 97 % 1016,9 hPa 0,0 l/m² 0 min 0 min 0 W/m² 9,7 km/h (2 Bft) 95,74 %
24.02.2026 02:34 9,3 °C 8,3 °C 4,4 °C 97 % 1016,8 hPa 0,0 l/m² 0 min 0 min 0 W/m² 12,9 km/h (3 Bft) 97,87 %
24.02.2026 02:36 9,3 °C 8,3 °C 4,4 °C 97 % 1016,9 hPa 0,0 l/m² 0 min 0 min 0 W/m² 9,7 km/h (2 Bft) 97,83 %
24.02.2026 02:38 9,3 °C 8,3 °C 4,4 °C 96 % 1016,9 hPa 0,0 l/m² 0 min 0 min 0 W/m² 6,4 km/h (2 Bft) 95,74 %
24.02.2026 02:40 9,3 °C 8,3 °C 4,4 °C 96 % 1016,9 hPa 0,0 l/m² 0 min 0 min 0 W/m² 16,1 km/h (3 Bft) 95,74 %
24.02.2026 02:42 9,3 °C 8,3 °C 4,4 °C 96 % 1016,8 hPa 0,0 l/m² 0 min 0 min 0 W/m² 12,9 km/h (3 Bft) 97,87 %
24.02.2026 02:44 9,3 °C 8,3 °C 4,4 °C 96 % 1016,9 hPa 0,0 l/m² 0 min 0 min 0 W/m² 9,7 km/h (2 Bft) 97,87 %
24.02.2026 02:46 9,3 °C 8,3 °C 4,4 °C 96 % 1016,9 hPa 0,0 l/m² 0 min 0 min 0 W/m² 9,7 km/h (2 Bft) 97,87 %
24.02.2026 02:48 9,3 °C 8,3 °C 4,4 °C 96 % 1016,9 hPa 0,0 l/m² 0 min 0 min 0 W/m² 12,9 km/h (3 Bft) 100,00 %
24.02.2026 02:50 9,3 °C 8,3 °C 4,4 °C 96 % 1016,9 hPa 0,0 l/m² 0 min 0 min 0 W/m² 12,9 km/h (3 Bft) 100,00 %
24.02.2026 02:52 9,3 °C 8,3 °C 4,4 °C 96 % 1016,9 hPa 0,0 l/m² 0 min 0 min 0 W/m² 9,7 km/h (2 Bft) 97,87 %
24.02.2026 02:54 9,3 °C 8,3 °C 4,4 °C 96 % 1016,8 hPa 0,0 l/m² 0 min 0 min 0 W/m² 6,4 km/h (2 Bft) 97,87 %
24.02.2026 02:56 9,3 °C 8,3 °C 4,4 °C 96 % 1016,8 hPa 0,0 l/m² 0 min 0 min 0 W/m² 16,1 km/h (3 Bft) 97,87 %
24.02.2026 02:58 9,3 °C 8,3 °C 4,4 °C 97 % 1016,9 hPa 0,0 l/m² 0 min 0 min 0 W/m² 12,9 km/h (3 Bft) 97,87 %
24.02.2026 03:00 9,2 °C 8,3 °C 4,4 °C 97 % 1016,8 hPa 0,0 l/m² 0 min 0 min 0 W/m² 12,9 km/h (3 Bft) 97,83 %
24.02.2026 03:02 9,2 °C 8,3 °C 4,4 °C 97 % 1016,8 hPa 0,0 l/m² 0 min 0 min 0 W/m² 6,4 km/h (2 Bft) 97,87 %
24.02.2026 03:04 9,2 °C 8,3 °C 4,4 °C 97 % 1016,8 hPa 0,0 l/m² 0 min 0 min 0 W/m² 9,7 km/h (2 Bft) 97,87 %
24.02.2026 03:06 9,2 °C 8,3 °C 4,4 °C 97 % 1016,8 hPa 0,0 l/m² 0 min 0 min 0 W/m² 12,9 km/h (3 Bft) 97,87 %
24.02.2026 03:08 9,2 °C 8,3 °C 4,4 °C 97 % 1016,8 hPa 0,0 l/m² 0 min 0 min 0 W/m² 6,4 km/h (2 Bft) 100,00 %
24.02.2026 03:10 9,2 °C 8,3 °C 4,4 °C 97 % 1016,9 hPa 0,0 l/m² 0 min 0 min 0 W/m² 6,4 km/h (2 Bft) 100,00 %
24.02.2026 03:12 9,2 °C 8,3 °C 4,4 °C 97 % 1016,9 hPa 0,0 l/m² 0 min 0 min 0 W/m² 6,4 km/h (2 Bft) 100,00 %
24.02.2026 03:14 9,2 °C 8,3 °C 4,4 °C 97 % 1016,9 hPa 0,0 l/m² 0 min 0 min 0 W/m² 3,2 km/h (1 Bft) 100,00 %
24.02.2026 03:16 9,2 °C 8,3 °C 4,4 °C 97 % 1016,9 hPa 0,0 l/m² 0 min 0 min 0 W/m² 12,9 km/h (3 Bft) 97,87 %
24.02.2026 03:18 9,2 °C 8,3 °C 4,4 °C 97 % 1016,9 hPa 0,0 l/m² 0 min 0 min 0 W/m² 12,9 km/h (3 Bft) 100,00 %
24.02.2026 03:20 9,2 °C 8,3 °C 4,4 °C 97 % 1016,9 hPa 0,0 l/m² 0 min 0 min 0 W/m² 16,1 km/h (3 Bft) 97,87 %
24.02.2026 03:22 9,2 °C 8,3 °C 4,4 °C 97 % 1016,8 hPa 0,0 l/m² 0 min 0 min 0 W/m² 6,4 km/h (2 Bft) 97,87 %
24.02.2026 03:24 9,2 °C 8,3 °C 4,4 °C 97 % 1016,9 hPa 0,0 l/m² 0 min 0 min 0 W/m² 6,4 km/h (2 Bft) 100,00 %
24.02.2026 03:26 9,2 °C 8,3 °C 4,4 °C 97 % 1016,8 hPa 0,0 l/m² 0 min 0 min 0 W/m² 16,1 km/h (3 Bft) 100,00 %
24.02.2026 03:28 9,2 °C 8,3 °C 4,4 °C 97 % 1016,8 hPa 0,0 l/m² 0 min 0 min 0 W/m² 6,4 km/h (2 Bft) 100,00 %
24.02.2026 03:30 9,2 °C 8,3 °C 4,4 °C 97 % 1016,8 hPa 0,0 l/m² 0 min 0 min 0 W/m² 12,9 km/h (3 Bft) 100,00 %
24.02.2026 03:32 9,2 °C 8,3 °C 4,4 °C 97 % 1016,7 hPa 0,0 l/m² 0 min 0 min 0 W/m² 16,1 km/h (3 Bft) 97,87 %
24.02.2026 03:34 9,2 °C 8,3 °C 4,4 °C 97 % 1016,7 hPa 0,0 l/m² 0 min 0 min 0 W/m² 6,4 km/h (2 Bft) 97,83 %
24.02.2026 03:36 9,2 °C 8,3 °C 4,4 °C 97 % 1016,8 hPa 0,0 l/m² 0 min 0 min 0 W/m² 6,4 km/h (2 Bft) 97,87 %
24.02.2026 03:38 9,2 °C 8,3 °C 4,4 °C 97 % 1016,7 hPa 0,0 l/m² 0 min 0 min 0 W/m² 12,9 km/h (3 Bft) 97,87 %
24.02.2026 03:40 9,2 °C 8,3 °C 4,4 °C 97 % 1016,7 hPa 0,0 l/m² 0 min 0 min 0 W/m² 6,4 km/h (2 Bft) 97,87 %
24.02.2026 03:42 9,2 °C 8,3 °C 4,4 °C 97 % 1016,8 hPa 0,0 l/m² 0 min 0 min 0 W/m² 6,4 km/h (2 Bft) 97,87 %
24.02.2026 03:44 9,2 °C 8,3 °C 4,4 °C 97 % 1016,8 hPa 0,0 l/m² 0 min 0 min 0 W/m² 12,9 km/h (3 Bft) 97,87 %
24.02.2026 03:46 9,2 °C 8,3 °C 4,4 °C 97 % 1016,8 hPa 0,0 l/m² 0 min 0 min 0 W/m² 9,7 km/h (2 Bft) 97,83 %
24.02.2026 03:48 9,2 °C 8,3 °C 4,4 °C 97 % 1016,8 hPa 0,0 l/m² 0 min 0 min 0 W/m² 12,9 km/h (3 Bft) 97,87 %
24.02.2026 03:50 9,2 °C 8,3 °C 4,4 °C 97 % 1016,9 hPa 0,0 l/m² 0 min 0 min 0 W/m² 6,4 km/h (2 Bft) 97,87 %
24.02.2026 03:52 9,2 °C 8,3 °C 4,4 °C 97 % 1016,9 hPa 0,0 l/m² 0 min 0 min 0 W/m² 6,4 km/h (2 Bft) 97,87 %
24.02.2026 03:54 9,2 °C 8,3 °C 4,4 °C 97 % 1016,9 hPa 0,0 l/m² 0 min 0 min 0 W/m² 6,4 km/h (2 Bft) 95,74 %
24.02.2026 03:56 9,1 °C 8,3 °C 4,4 °C 97 % 1017,0 hPa 0,0 l/m² 0 min 0 min 0 W/m² 3,2 km/h (1 Bft) 95,74 %
24.02.2026 03:58 9,2 °C 8,3 °C 4,4 °C 97 % 1017,0 hPa 0,0 l/m² 0 min 0 min 0 W/m² 9,7 km/h (2 Bft) 97,83 %
24.02.2026 04:00 9,2 °C 8,3 °C 4,4 °C 97 % 1017,1 hPa 0,0 l/m² 0 min 0 min 0 W/m² 3,2 km/h (1 Bft) 95,74 %
24.02.2026 04:02 9,2 °C 8,3 °C 4,4 °C 97 % 1017,1 hPa 0,0 l/m² 0 min 0 min 0 W/m² 3,2 km/h (1 Bft) 100,00 %
24.02.2026 04:04 9,2 °C 8,3 °C 4,4 °C 97 % 1017,1 hPa 0,0 l/m² 0 min 0 min 0 W/m² 3,2 km/h (1 Bft) 100,00 %
24.02.2026 04:06 9,2 °C 8,3 °C 4,4 °C 97 % 1017,1 hPa 0,0 l/m² 0 min 0 min 0 W/m² 6,4 km/h (2 Bft) 97,87 %
24.02.2026 04:08 9,2 °C 8,3 °C 4,4 °C 97 % 1017,2 hPa 0,0 l/m² 0 min 0 min 0 W/m² 6,4 km/h (2 Bft) 97,87 %
24.02.2026 04:10 9,2 °C 8,3 °C 5,0 °C 97 % 1017,2 hPa 0,0 l/m² 0 min 0 min 0 W/m² 6,4 km/h (2 Bft) 97,83 %
24.02.2026 04:12 9,2 °C 8,3 °C 5,0 °C 97 % 1017,1 hPa 0,0 l/m² 0 min 0 min 0 W/m² 3,2 km/h (1 Bft) 97,87 %
24.02.2026 04:14 9,2 °C 8,3 °C 5,0 °C 97 % 1017,1 hPa 0,0 l/m² 0 min 0 min 0 W/m² 3,2 km/h (1 Bft) 100,00 %
24.02.2026 04:16 9,2 °C 8,3 °C 5,0 °C 97 % 1017,2 hPa 0,0 l/m² 0 min 0 min 0 W/m² 3,2 km/h (1 Bft) 100,00 %
24.02.2026 04:18 9,2 °C 8,3 °C 5,0 °C 97 % 1017,2 hPa 0,0 l/m² 0 min 0 min 0 W/m² 3,2 km/h (1 Bft) 97,87 %
24.02.2026 04:20 9,2 °C 8,3 °C 5,0 °C 97 % 1017,1 hPa 0,0 l/m² 0 min 0 min 0 W/m² 3,2 km/h (1 Bft) 97,83 %
24.02.2026 04:22 9,2 °C 8,3 °C 5,0 °C 97 % 1017,2 hPa 0,0 l/m² 0 min 0 min 0 W/m² 3,2 km/h (1 Bft) 91,49 %
24.02.2026 04:24 9,2 °C 8,3 °C 5,0 °C 97 % 1017,2 hPa 0,0 l/m² 0 min 0 min 0 W/m² 6,4 km/h (2 Bft) 93,62 %
24.02.2026 04:26 9,2 °C 8,3 °C 5,0 °C 97 % 1017,1 hPa 0,0 l/m² 0 min 0 min 0 W/m² 6,4 km/h (2 Bft) 97,87 %
24.02.2026 04:28 9,2 °C 8,3 °C 5,0 °C 97 % 1017,2 hPa 0,0 l/m² 0 min 0 min 0 W/m² 0,0 km/h (0 Bft) 97,87 %
24.02.2026 04:30 9,2 °C 8,3 °C 5,0 °C 97 % 1017,2 hPa 0,0 l/m² 0 min 0 min 0 W/m² 6,4 km/h (2 Bft) 97,87 %
24.02.2026 04:32 9,2 °C 8,3 °C 5,0 °C 97 % 1017,2 hPa 0,0 l/m² 0 min 0 min 0 W/m² 3,2 km/h (1 Bft) 97,83 %
24.02.2026 04:34 9,2 °C 8,3 °C 5,0 °C 97 % 1017,2 hPa 0,0 l/m² 0 min 0 min 0 W/m² 3,2 km/h (1 Bft) 95,74 %
24.02.2026 04:36 9,2 °C 8,3 °C 5,0 °C 97 % 1017,3 hPa 0,0 l/m² 0 min 0 min 0 W/m² 3,2 km/h (1 Bft) 95,74 %
24.02.2026 04:38 9,2 °C 8,3 °C 5,0 °C 97 % 1017,4 hPa 0,0 l/m² 0 min 0 min 0 W/m² 3,2 km/h (1 Bft) 95,74 %
24.02.2026 04:40 9,1 °C 8,3 °C 5,0 °C 97 % 1017,3 hPa 0,0 l/m² 0 min 0 min 0 W/m² 3,2 km/h (1 Bft) 91,49 %
24.02.2026 04:42 9,1 °C 8,3 °C 5,0 °C 97 % 1017,4 hPa 0,0 l/m² 0 min 0 min 0 W/m² 3,2 km/h (1 Bft) 95,74 %
24.02.2026 04:44 9,2 °C 8,3 °C 5,0 °C 97 % 1017,4 hPa 0,0 l/m² 0 min 0 min 0 W/m² 3,2 km/h (1 Bft) 95,65 %
24.02.2026 04:46 9,1 °C 8,3 °C 5,0 °C 97 % 1017,4 hPa 0,0 l/m² 0 min 0 min 0 W/m² 3,2 km/h (1 Bft) 95,74 %
24.02.2026 04:48 9,2 °C 8,3 °C 5,0 °C 97 % 1017,5 hPa 0,0 l/m² 0 min 0 min 0 W/m² 6,4 km/h (2 Bft) 95,74 %
24.02.2026 04:50 9,1 °C 8,3 °C 5,0 °C 97 % 1017,6 hPa 0,0 l/m² 0 min 0 min 0 W/m² 6,4 km/h (2 Bft) 95,74 %
24.02.2026 04:52 9,1 °C 8,3 °C 5,0 °C 97 % 1017,6 hPa 0,0 l/m² 0 min 0 min 0 W/m² 3,2 km/h (1 Bft) 95,74 %
24.02.2026 04:54 9,1 °C 8,3 °C 5,0 °C 97 % 1017,6 hPa 0,0 l/m² 0 min 0 min 0 W/m² 3,2 km/h (1 Bft) 93,62 %
24.02.2026 04:56 9,1 °C 8,3 °C 5,0 °C 97 % 1017,6 hPa 0,0 l/m² 0 min 0 min 0 W/m² 3,2 km/h (1 Bft) 95,65 %
24.02.2026 04:58 9,1 °C 8,3 °C 5,0 °C 97 % 1017,6 hPa 0,0 l/m² 0 min 0 min 0 W/m² 6,4 km/h (2 Bft) 93,62 %
24.02.2026 05:00 9,1 °C 8,3 °C 5,0 °C 97 % 1017,6 hPa 0,0 l/m² 0 min 0 min 0 W/m² 0,0 km/h (0 Bft) 95,74 %
24.02.2026 05:02 9,1 °C 8,3 °C 5,0 °C 97 % 1017,7 hPa 0,0 l/m² 0 min 0 min 0 W/m² 0,0 km/h (0 Bft) 95,74 %
24.02.2026 05:04 9,1 °C 8,3 °C 5,0 °C 98 % 1017,7 hPa 0,0 l/m² 0 min 0 min 0 W/m² 6,4 km/h (2 Bft) 93,62 %
24.02.2026 05:06 9,1 °C 8,3 °C 5,0 °C 98 % 1017,7 hPa 0,0 l/m² 0 min 0 min 0 W/m² 3,2 km/h (1 Bft) 95,74 %
24.02.2026 05:08 9,1 °C 8,3 °C 5,0 °C 98 % 1017,7 hPa 0,0 l/m² 0 min 0 min 0 W/m² 3,2 km/h (1 Bft) 95,74 %
24.02.2026 05:10 9,1 °C 8,3 °C 5,0 °C 98 % 1017,8 hPa 0,0 l/m² 0 min 0 min 0 W/m² 3,2 km/h (1 Bft) 95,74 %
24.02.2026 05:12 9,1 °C 8,3 °C 5,0 °C 98 % 1017,8 hPa 0,0 l/m² 0 min 0 min 0 W/m² 3,2 km/h (1 Bft) 97,87 %
24.02.2026 05:14 9,1 °C 8,3 °C 5,0 °C 98 % 1017,8 hPa 0,0 l/m² 0 min 0 min 0 W/m² 3,2 km/h (1 Bft) 97,87 %
24.02.2026 05:16 9,1 °C 8,3 °C 5,0 °C 98 % 1017,8 hPa 0,0 l/m² 0 min 0 min 0 W/m² 3,2 km/h (1 Bft) 97,87 %
24.02.2026 05:18 9,1 °C 8,3 °C 5,0 °C 98 % 1017,8 hPa 0,0 l/m² 0 min 0 min 0 W/m² 3,2 km/h (1 Bft) 97,83 %
24.02.2026 05:20 9,1 °C 8,3 °C 5,0 °C 98 % 1017,8 hPa 0,0 l/m² 0 min 0 min 0 W/m² 3,2 km/h (1 Bft) 100,00 %
24.02.2026 05:22 9,1 °C 8,3 °C 5,0 °C 98 % 1017,8 hPa 0,0 l/m² 0 min 0 min 0 W/m² 3,2 km/h (1 Bft) 100,00 %
24.02.2026 05:24 9,1 °C 8,3 °C 5,0 °C 98 % 1017,9 hPa 0,0 l/m² 0 min 0 min 0 W/m² 3,2 km/h (1 Bft) 97,87 %
24.02.2026 05:26 9,1 °C 8,3 °C 5,0 °C 98 % 1017,8 hPa 0,0 l/m² 0 min 0 min 0 W/m² 0,0 km/h (0 Bft) 100,00 %
24.02.2026 05:28 9,1 °C 8,3 °C 5,0 °C 98 % 1017,8 hPa 0,0 l/m² 0 min 0 min 0 W/m² 0,0 km/h (0 Bft) 100,00 %
24.02.2026 05:30 9,1 °C 8,3 °C 5,0 °C 98 % 1017,8 hPa 0,0 l/m² 0 min 0 min 0 W/m² 3,2 km/h (1 Bft) 95,65 %
24.02.2026 05:32 9,1 °C 8,3 °C 5,0 °C 98 % 1017,9 hPa 0,0 l/m² 0 min 0 min 0 W/m² 3,2 km/h (1 Bft) 97,87 %
24.02.2026 05:34 9,1 °C 8,3 °C 4,4 °C 98 % 1017,9 hPa 0,0 l/m² 0 min 0 min 0 W/m² 3,2 km/h (1 Bft) 97,87 %
24.02.2026 05:36 9,1 °C 8,3 °C 4,4 °C 98 % 1017,9 hPa 0,0 l/m² 0 min 0 min 0 W/m² 0,0 km/h (0 Bft) 95,74 %
24.02.2026 05:38 9,1 °C 8,3 °C 4,4 °C 98 % 1018,0 hPa 0,0 l/m² 0 min 0 min 0 W/m² 3,2 km/h (1 Bft) 97,87 %
24.02.2026 05:40 9,1 °C 8,3 °C 4,4 °C 98 % 1018,0 hPa 0,0 l/m² 0 min 0 min 0 W/m² 3,2 km/h (1 Bft) 95,74 %
24.02.2026 05:42 9,1 °C 8,3 °C 4,4 °C 98 % 1018,0 hPa 0,0 l/m² 0 min 0 min 0 W/m² 0,0 km/h (0 Bft) 97,83 %
24.02.2026 05:44 9,0 °C 8,3 °C 4,4 °C 98 % 1018,0 hPa 0,0 l/m² 0 min 0 min 0 W/m² 3,2 km/h (1 Bft) 97,87 %
24.02.2026 05:46 9,0 °C 8,3 °C 4,4 °C 98 % 1018,0 hPa 0,0 l/m² 0 min 0 min 0 W/m² 0,0 km/h (0 Bft) 97,87 %
24.02.2026 05:48 9,0 °C 8,3 °C 4,4 °C 98 % 1018,1 hPa 0,0 l/m² 0 min 0 min 0 W/m² 0,0 km/h (0 Bft) 97,87 %
24.02.2026 05:50 9,0 °C 8,3 °C 4,4 °C 98 % 1018,0 hPa 0,0 l/m² 0 min 0 min 0 W/m² 0,0 km/h (0 Bft) 97,87 %
24.02.2026 05:52 9,0 °C 8,3 °C 4,4 °C 98 % 1018,0 hPa 0,0 l/m² 0 min 0 min 0 W/m² 0,0 km/h (0 Bft) 97,87 %
24.02.2026 05:54 9,0 °C 8,3 °C 4,4 °C 98 % 1018,0 hPa 0,0 l/m² 0 min 0 min 0 W/m² 3,2 km/h (1 Bft) 97,83 %
24.02.2026 05:56 8,9 °C 8,3 °C 4,4 °C 98 % 1018,0 hPa 0,0 l/m² 0 min 0 min 0 W/m² 0,0 km/h (0 Bft) 97,87 %
24.02.2026 05:58 8,9 °C 8,3 °C 4,4 °C 98 % 1018,0 hPa 0,0 l/m² 0 min 0 min 0 W/m² 0,0 km/h (0 Bft) 97,87 %
24.02.2026 06:00 9,0 °C 8,3 °C 4,4 °C 98 % 1018,0 hPa 0,0 l/m² 0 min 0 min 0 W/m² 0,0 km/h (0 Bft) 97,87 %
24.02.2026 06:02 8,9 °C 8,3 °C 4,4 °C 98 % 1018,0 hPa 0,0 l/m² 0 min 0 min 0 W/m² 0,0 km/h (0 Bft) 93,62 %
24.02.2026 06:04 8,9 °C 8,3 °C 4,4 °C 98 % 1018,0 hPa 0,0 l/m² 0 min 0 min 0 W/m² 0,0 km/h (0 Bft) 100,00 %
24.02.2026 06:07 8,9 °C 8,3 °C 4,4 °C 98 % 1018,0 hPa 0,0 l/m² 0 min 0 min 0 W/m² 0,0 km/h (0 Bft) 100,00 %
24.02.2026 06:08 8,9 °C 8,3 °C 4,4 °C 98 % 1018,0 hPa 0,0 l/m² 0 min 0 min 0 W/m² 3,2 km/h (1 Bft) 100,00 %
24.02.2026 06:12 8,9 °C 8,3 °C 4,4 °C 98 % 1018,1 hPa 0,0 l/m² 0 min 0 min 0 W/m² 0,0 km/h (0 Bft) 100,00 %
24.02.2026 06:14 8,9 °C 7,8 °C 4,4 °C 98 % 1018,1 hPa 0,0 l/m² 0 min 0 min 0 W/m² 0,0 km/h (0 Bft) 97,83 %
24.02.2026 06:16 8,9 °C 7,8 °C 4,4 °C 98 % 1018,1 hPa 0,0 l/m² 0 min 0 min 0 W/m² 0,0 km/h (0 Bft) 100,00 %
24.02.2026 06:18 8,9 °C 7,8 °C 4,4 °C 98 % 1018,2 hPa 0,0 l/m² 0 min 0 min 0 W/m² 3,2 km/h (1 Bft) 100,00 %
24.02.2026 06:20 8,9 °C 7,8 °C 4,4 °C 98 % 1018,2 hPa 0,0 l/m² 0 min 0 min 0 W/m² 3,2 km/h (1 Bft) 100,00 %
24.02.2026 06:22 8,9 °C 7,8 °C 4,4 °C 98 % 1018,1 hPa 0,0 l/m² 0 min 0 min 0 W/m² 0,0 km/h (0 Bft) 100,00 %
24.02.2026 06:24 8,9 °C 7,8 °C 4,4 °C 98 % 1018,2 hPa 0,0 l/m² 0 min 0 min 0 W/m² 0,0 km/h (0 Bft) 100,00 %
24.02.2026 06:26 8,9 °C 7,8 °C 4,4 °C 98 % 1018,3 hPa 0,0 l/m² 0 min 0 min 0 W/m² 0,0 km/h (0 Bft) 95,65 %
24.02.2026 06:28 8,9 °C 7,8 °C 4,4 °C 98 % 1018,2 hPa 0,0 l/m² 0 min 0 min 0 W/m² 0,0 km/h (0 Bft) 100,00 %
24.02.2026 06:30 8,9 °C 7,8 °C 4,4 °C 98 % 1018,2 hPa 0,0 l/m² 0 min 0 min 0 W/m² 0,0 km/h (0 Bft) 100,00 %
24.02.2026 06:32 8,9 °C 7,8 °C 4,4 °C 98 % 1018,2 hPa 0,0 l/m² 0 min 0 min 0 W/m² 0,0 km/h (0 Bft) 95,74 %
24.02.2026 06:34 8,8 °C 7,8 °C 4,4 °C 98 % 1018,2 hPa 0,0 l/m² 0 min 0 min 0 W/m² 0,0 km/h (0 Bft) 100,00 %
24.02.2026 06:36 8,8 °C 7,8 °C 4,4 °C 98 % 1018,3 hPa 0,0 l/m² 0 min 0 min 0 W/m² 0,0 km/h (0 Bft) 97,87 %
24.02.2026 06:38 8,8 °C 7,8 °C 4,4 °C 98 % 1018,2 hPa 0,0 l/m² 0 min 0 min 0 W/m² 0,0 km/h (0 Bft) 100,00 %
24.02.2026 06:40 8,8 °C 7,8 °C 4,4 °C 98 % 1018,3 hPa 0,0 l/m² 0 min 0 min 0 W/m² 0,0 km/h (0 Bft) 100,00 %
24.02.2026 06:42 8,8 °C 7,8 °C 4,4 °C 98 % 1018,3 hPa 0,0 l/m² 0 min 0 min 0 W/m² 0,0 km/h (0 Bft) 97,87 %
24.02.2026 06:44 8,8 °C 7,8 °C 4,4 °C 98 % 1018,3 hPa 0,0 l/m² 0 min 0 min 0 W/m² 0,0 km/h (0 Bft) 97,87 %
24.02.2026 06:46 8,8 °C 7,8 °C 4,4 °C 98 % 1018,3 hPa 0,0 l/m² 0 min 0 min 0 W/m² 0,0 km/h (0 Bft) 100,00 %
24.02.2026 06:48 8,8 °C 7,8 °C 4,4 °C 98 % 1018,3 hPa 0,0 l/m² 0 min 0 min 0 W/m² 0,0 km/h (0 Bft) 100,00 %
24.02.2026 06:50 8,8 °C 7,8 °C 4,4 °C 98 % 1018,3 hPa 0,0 l/m² 0 min 0 min 0 W/m² 0,0 km/h (0 Bft) 100,00 %
24.02.2026 06:52 8,8 °C 7,8 °C 4,4 °C 98 % 1018,4 hPa 0,0 l/m² 0 min 0 min 0 W/m² 0,0 km/h (0 Bft) 97,87 %
24.02.2026 06:54 8,8 °C 7,8 °C 4,4 °C 98 % 1018,4 hPa 0,0 l/m² 0 min 0 min 0 W/m² 0,0 km/h (0 Bft) 100,00 %
24.02.2026 06:56 8,8 °C 7,8 °C 4,4 °C 98 % 1018,5 hPa 0,0 l/m² 0 min 0 min 0 W/m² 0,0 km/h (0 Bft) 100,00 %
24.02.2026 06:58 8,8 °C 7,8 °C 4,4 °C 98 % 1018,5 hPa 0,0 l/m² 0 min 0 min 0 W/m² 0,0 km/h (0 Bft) 100,00 %
24.02.2026 07:00 8,8 °C 7,8 °C 4,4 °C 98 % 1018,6 hPa 0,0 l/m² 0 min 0 min 0 W/m² 0,0 km/h (0 Bft) 100,00 %
24.02.2026 07:02 8,8 °C 7,8 °C 4,4 °C 98 % 1018,6 hPa 0,0 l/m² 0 min 0 min 0 W/m² 0,0 km/h (0 Bft) 97,83 %
24.02.2026 07:04 8,8 °C 7,8 °C 4,4 °C 98 % 1018,6 hPa 0,0 l/m² 0 min 0 min 0 W/m² 0,0 km/h (0 Bft) 100,00 %
24.02.2026 07:06 8,8 °C 7,8 °C 4,4 °C 98 % 1018,7 hPa 0,0 l/m² 0 min 0 min 0 W/m² 0,0 km/h (0 Bft) 97,87 %
24.02.2026 07:08 8,8 °C 7,8 °C 4,4 °C 98 % 1018,6 hPa 0,0 l/m² 0 min 0 min 0 W/m² 0,0 km/h (0 Bft) 96,15 %
24.02.2026 07:10 8,8 °C 7,8 °C 4,4 °C 98 % 1018,7 hPa 0,0 l/m² 0 min 0 min 0 W/m² 0,0 km/h (0 Bft) 97,87 %
24.02.2026 07:12 8,7 °C 7,8 °C 4,4 °C 98 % 1018,6 hPa 0,0 l/m² 0 min 0 min 0 W/m² 0,0 km/h (0 Bft) 95,65 %
24.02.2026 07:14 8,7 °C 7,8 °C 4,4 °C 98 % 1018,7 hPa 0,0 l/m² 0 min 0 min 0 W/m² 0,0 km/h (0 Bft) 97,87 %
24.02.2026 07:16 8,8 °C 7,8 °C 4,4 °C 98 % 1018,7 hPa 0,0 l/m² 0 min 0 min 0 W/m² 0,0 km/h (0 Bft) 95,74 %
24.02.2026 07:18 8,7 °C 7,8 °C 4,4 °C 98 % 1018,7 hPa 0,0 l/m² 0 min 0 min 0 W/m² 0,0 km/h (0 Bft) 95,74 %
24.02.2026 07:20 8,7 °C 7,8 °C 4,4 °C 98 % 1018,7 hPa 0,0 l/m² 0 min 0 min 0 W/m² 0,0 km/h (0 Bft) 93,62 %
24.02.2026 07:22 8,7 °C 7,8 °C 4,4 °C 98 % 1018,7 hPa 0,0 l/m² 0 min 0 min 0 W/m² 0,0 km/h (0 Bft) 95,74 %
24.02.2026 07:24 8,7 °C 7,8 °C 4,4 °C 98 % 1018,7 hPa 0,0 l/m² 0 min 0 min 0 W/m² 0,0 km/h (0 Bft) 91,30 %
24.02.2026 07:26 8,7 °C 7,8 °C 4,4 °C 98 % 1018,7 hPa 0,0 l/m² 0 min 0 min 0 W/m² 0,0 km/h (0 Bft) 93,62 %
24.02.2026 07:28 8,7 °C 7,8 °C 4,4 °C 98 % 1018,7 hPa 0,0 l/m² 0 min 0 min 0 W/m² 0,0 km/h (0 Bft) 93,62 %
24.02.2026 07:30 8,7 °C 7,8 °C 4,4 °C 98 % 1018,7 hPa 0,0 l/m² 0 min 0 min 0 W/m² 0,0 km/h (0 Bft) 93,62 %
24.02.2026 07:32 8,7 °C 7,8 °C 4,4 °C 98 % 1018,8 hPa 0,0 l/m² 0 min 0 min 0 W/m² 0,0 km/h (0 Bft) 91,49 %
24.02.2026 07:34 8,8 °C 7,8 °C 4,4 °C 98 % 1018,7 hPa 0,0 l/m² 0 min 0 min 0 W/m² 0,0 km/h (0 Bft) 93,62 %
24.02.2026 07:36 8,8 °C 7,8 °C 4,4 °C 98 % 1018,7 hPa 0,0 l/m² 0 min 0 min 0 W/m² 0,0 km/h (0 Bft) 93,48 %
24.02.2026 07:38 8,8 °C 7,8 °C 4,4 °C 98 % 1018,7 hPa 0,0 l/m² 0 min 0 min 0 W/m² 0,0 km/h (0 Bft) 91,49 %
24.02.2026 07:40 8,8 °C 7,8 °C 4,4 °C 98 % 1018,8 hPa 0,0 l/m² 0 min 0 min 4 W/m² 0,0 km/h (0 Bft) 93,62 %
24.02.2026 07:42 8,8 °C 7,8 °C 4,4 °C 98 % 1018,7 hPa 0,0 l/m² 0 min 0 min 5 W/m² 0,0 km/h (0 Bft) 93,62 %
24.02.2026 07:44 8,8 °C 7,8 °C 4,4 °C 98 % 1018,7 hPa 0,0 l/m² 0 min 0 min 7 W/m² 0,0 km/h (0 Bft) 93,62 %
24.02.2026 07:46 8,8 °C 7,8 °C 4,4 °C 98 % 1018,8 hPa 0,0 l/m² 0 min 0 min 9 W/m² 0,0 km/h (0 Bft) 93,62 %
24.02.2026 07:48 8,8 °C 7,8 °C 4,4 °C 98 % 1018,8 hPa 0,0 l/m² 0 min 0 min 10 W/m² 0,0 km/h (0 Bft) 95,65 %
24.02.2026 07:50 8,8 °C 7,8 °C 4,4 °C 98 % 1018,8 hPa 0,0 l/m² 0 min 0 min 11 W/m² 0,0 km/h (0 Bft) 93,62 %
24.02.2026 07:52 8,8 °C 7,8 °C 4,4 °C 98 % 1018,8 hPa 0,0 l/m² 0 min 0 min 11 W/m² 3,2 km/h (1 Bft) 93,62 %
24.02.2026 07:54 8,8 °C 7,8 °C 4,4 °C 98 % 1018,8 hPa 0,0 l/m² 0 min 0 min 12 W/m² 3,2 km/h (1 Bft) 95,74 %
24.02.2026 07:56 8,8 °C 7,8 °C 4,4 °C 98 % 1018,9 hPa 0,0 l/m² 0 min 0 min 13 W/m² 3,2 km/h (1 Bft) 97,87 %
24.02.2026 07:58 8,8 °C 8,3 °C 4,4 °C 98 % 1018,9 hPa 0,0 l/m² 0 min 0 min 16 W/m² 3,2 km/h (1 Bft) 97,87 %
24.02.2026 08:00 8,8 °C 8,3 °C 5,0 °C 98 % 1018,9 hPa 0,0 l/m² 0 min 0 min 16 W/m² 3,2 km/h (1 Bft) 97,83 %
24.02.2026 08:02 8,8 °C 8,3 °C 5,0 °C 98 % 1018,9 hPa 0,0 l/m² 0 min 0 min 17 W/m² 6,4 km/h (2 Bft) 97,87 %
24.02.2026 08:04 8,8 °C 8,3 °C 5,0 °C 98 % 1018,9 hPa 0,0 l/m² 0 min 0 min 19 W/m² 3,2 km/h (1 Bft) 97,87 %
24.02.2026 08:06 8,8 °C 8,3 °C 5,0 °C 98 % 1018,9 hPa 0,0 l/m² 0 min 0 min 21 W/m² 6,4 km/h (2 Bft) 95,74 %
24.02.2026 08:08 8,8 °C 8,3 °C 5,0 °C 98 % 1018,9 hPa 0,0 l/m² 0 min 0 min 23 W/m² 3,2 km/h (1 Bft) 95,83 %
24.02.2026 08:10 8,8 °C 8,3 °C 5,0 °C 98 % 1018,9 hPa 0,0 l/m² 0 min 0 min 23 W/m² 6,4 km/h (2 Bft) 100,00 %
24.02.2026 08:12 8,8 °C 8,3 °C 5,0 °C 98 % 1019,0 hPa 0,0 l/m² 0 min 0 min 23 W/m² 3,2 km/h (1 Bft) 100,00 %
24.02.2026 08:14 8,8 °C 8,3 °C 5,0 °C 98 % 1019,0 hPa 0,0 l/m² 0 min 0 min 25 W/m² 3,2 km/h (1 Bft) 97,87 %
24.02.2026 08:16 8,9 °C 8,3 °C 5,0 °C 98 % 1019,0 hPa 0,0 l/m² 0 min 2 min 28 W/m² 3,2 km/h (1 Bft) 97,87 %
24.02.2026 08:18 8,9 °C 8,3 °C 5,0 °C 98 % 1019,1 hPa 0,0 l/m² 0 min 0 min 32 W/m² 3,2 km/h (1 Bft) 100,00 %
24.02.2026 08:20 8,9 °C 8,3 °C 5,0 °C 98 % 1019,1 hPa 0,0 l/m² 0 min 0 min 34 W/m² 0,0 km/h (0 Bft) 95,74 %
24.02.2026 08:22 8,9 °C 8,3 °C 5,0 °C 98 % 1019,0 hPa 0,0 l/m² 0 min 0 min 36 W/m² 0,0 km/h (0 Bft) 100,00 %
24.02.2026 08:24 8,9 °C 8,3 °C 5,0 °C 98 % 1019,0 hPa 0,0 l/m² 0 min 0 min 39 W/m² 0,0 km/h (0 Bft) 100,00 %
24.02.2026 08:26 8,9 °C 8,3 °C 5,0 °C 98 % 1019,0 hPa 0,0 l/m² 0 min 0 min 39 W/m² 3,2 km/h (1 Bft) 97,87 %
24.02.2026 08:28 8,9 °C 8,9 °C 5,0 °C 98 % 1019,1 hPa 0,0 l/m² 0 min 0 min 37 W/m² 6,4 km/h (2 Bft) 100,00 %
24.02.2026 08:30 8,9 °C 8,9 °C 5,0 °C 98 % 1019,0 hPa 0,0 l/m² 0 min 0 min 37 W/m² 6,4 km/h (2 Bft) 100,00 %
24.02.2026 08:32 9,0 °C 8,9 °C 5,0 °C 98 % 1019,1 hPa 0,0 l/m² 0 min 0 min 39 W/m² 3,2 km/h (1 Bft) 97,87 %
24.02.2026 08:34 9,0 °C 8,9 °C 5,0 °C 98 % 1019,1 hPa 0,0 l/m² 0 min 0 min 40 W/m² 3,2 km/h (1 Bft) 100,00 %
24.02.2026 08:36 9,0 °C 8,9 °C 5,0 °C 98 % 1019,2 hPa 0,0 l/m² 0 min 0 min 40 W/m² 3,2 km/h (1 Bft) 97,83 %
24.02.2026 08:38 9,1 °C 8,9 °C 5,0 °C 98 % 1019,2 hPa 0,0 l/m² 0 min 0 min 38 W/m² 0,0 km/h (0 Bft) 100,00 %
24.02.2026 08:40 9,1 °C 8,9 °C 5,0 °C 98 % 1019,2 hPa 0,0 l/m² 0 min 0 min 34 W/m² 0,0 km/h (0 Bft) 100,00 %
24.02.2026 08:42 9,1 °C 8,9 °C 5,0 °C 98 % 1019,2 hPa 0,0 l/m² 0 min 0 min 35 W/m² 3,2 km/h (1 Bft) 100,00 %
24.02.2026 08:44 9,1 °C 8,9 °C 5,0 °C 99 % 1019,2 hPa 0,0 l/m² 0 min 0 min 40 W/m² 3,2 km/h (1 Bft) 100,00 %
24.02.2026 08:46 9,1 °C 8,9 °C 5,0 °C 99 % 1019,2 hPa 0,0 l/m² 0 min 0 min 52 W/m² 0,0 km/h (0 Bft) 100,00 %
24.02.2026 08:48 9,1 °C 8,9 °C 5,0 °C 99 % 1019,3 hPa 0,0 l/m² 0 min 0 min 61 W/m² 6,4 km/h (2 Bft) 100,00 %
24.02.2026 08:50 9,1 °C 8,9 °C 5,0 °C 99 % 1019,4 hPa 0,0 l/m² 0 min 0 min 55 W/m² 3,2 km/h (1 Bft) 97,87 %
24.02.2026 08:52 9,2 °C 8,9 °C 5,6 °C 99 % 1019,4 hPa 0,0 l/m² 0 min 0 min 52 W/m² 0,0 km/h (0 Bft) 97,87 %
24.02.2026 08:54 9,2 °C 9,4 °C 5,6 °C 99 % 1019,4 hPa 0,0 l/m² 0 min 0 min 59 W/m² 0,0 km/h (0 Bft) 100,00 %
24.02.2026 08:56 9,2 °C 9,4 °C 5,6 °C 99 % 1019,3 hPa 0,0 l/m² 0 min 0 min 72 W/m² 3,2 km/h (1 Bft) 100,00 %
24.02.2026 08:58 9,2 °C 9,4 °C 5,6 °C 99 % 1019,4 hPa 0,0 l/m² 0 min 0 min 82 W/m² 3,2 km/h (1 Bft) 100,00 %
24.02.2026 09:00 9,2 °C 9,4 °C 5,6 °C 99 % 1019,3 hPa 0,0 l/m² 0 min 0 min 93 W/m² 3,2 km/h (1 Bft) 100,00 %
24.02.2026 09:02 9,2 °C 10,0 °C 5,6 °C 99 % 1019,4 hPa 0,0 l/m² 2 min 0 min 115 W/m² 0,0 km/h (0 Bft) 98,00 %
24.02.2026 09:04 9,3 °C 10,0 °C 5,6 °C 99 % 1019,4 hPa 0,0 l/m² 2 min 0 min 120 W/m² 3,2 km/h (1 Bft) 100,00 %
24.02.2026 09:06 9,3 °C 10,0 °C 5,6 °C 99 % 1019,4 hPa 0,0 l/m² 0 min 0 min 100 W/m² 3,2 km/h (1 Bft) 97,87 %
24.02.2026 09:08 9,3 °C 10,0 °C 6,1 °C 99 % 1019,4 hPa 0,0 l/m² 0 min 0 min 80 W/m² 9,7 km/h (2 Bft) 100,00 %
24.02.2026 09:10 9,4 °C 10,0 °C 5,6 °C 99 % 1019,4 hPa 0,0 l/m² 0 min 0 min 71 W/m² 6,4 km/h (2 Bft) 100,00 %
24.02.2026 09:12 9,4 °C 9,4 °C 5,6 °C 99 % 1019,5 hPa 0,0 l/m² 0 min 0 min 66 W/m² 6,4 km/h (2 Bft) 100,00 %
24.02.2026 09:14 9,4 °C 9,4 °C 5,6 °C 99 % 1019,5 hPa 0,0 l/m² 0 min 0 min 61 W/m² 6,4 km/h (2 Bft) 100,00 %
24.02.2026 09:16 9,4 °C 9,4 °C 5,6 °C 99 % 1019,5 hPa 0,0 l/m² 0 min 0 min 59 W/m² 6,4 km/h (2 Bft) 95,74 %
24.02.2026 09:18 9,4 °C 9,4 °C 5,6 °C 99 % 1019,5 hPa 0,0 l/m² 0 min 0 min 57 W/m² 0,0 km/h (0 Bft) 100,00 %
24.02.2026 09:20 9,5 °C 9,4 °C 5,6 °C 99 % 1019,5 hPa 0,0 l/m² 0 min 0 min 60 W/m² 3,2 km/h (1 Bft) 95,74 %
24.02.2026 09:22 9,5 °C 9,4 °C 5,6 °C 99 % 1019,6 hPa 0,0 l/m² 0 min 0 min 72 W/m² 3,2 km/h (1 Bft) 97,87 %
24.02.2026 09:24 9,5 °C 9,4 °C 6,1 °C 99 % 1019,6 hPa 0,0 l/m² 0 min 0 min 75 W/m² 0,0 km/h (0 Bft) 97,83 %
24.02.2026 09:26 9,6 °C 10,0 °C 6,1 °C 99 % 1019,6 hPa 0,0 l/m² 0 min 0 min 72 W/m² 0,0 km/h (0 Bft) 95,74 %
24.02.2026 09:28 9,6 °C 10,0 °C 6,1 °C 99 % 1019,6 hPa 0,0 l/m² 0 min 0 min 84 W/m² 0,0 km/h (0 Bft) 93,62 %
24.02.2026 09:30 9,6 °C 10,0 °C 6,1 °C 99 % 1019,6 hPa 0,0 l/m² 0 min 0 min 92 W/m² 6,4 km/h (2 Bft) 97,87 %
24.02.2026 09:32 9,6 °C 10,0 °C 6,1 °C 99 % 1019,6 hPa 0,0 l/m² 0 min 0 min 107 W/m² 6,4 km/h (2 Bft) 97,87 %
24.02.2026 09:34 9,6 °C 10,0 °C 6,1 °C 99 % 1019,7 hPa 0,0 l/m² 0 min 0 min 100 W/m² 3,2 km/h (1 Bft) 97,87 %
24.02.2026 09:36 9,6 °C 10,0 °C 6,1 °C 99 % 1019,6 hPa 0,0 l/m² 0 min 0 min 74 W/m² 3,2 km/h (1 Bft) 97,83 %
24.02.2026 09:38 9,6 °C 10,0 °C 6,1 °C 99 % 1019,6 hPa 0,0 l/m² 0 min 0 min 71 W/m² 3,2 km/h (1 Bft) 93,62 %
24.02.2026 09:40 9,7 °C 10,0 °C 6,1 °C 99 % 1019,6 hPa 0,0 l/m² 0 min 0 min 80 W/m² 3,2 km/h (1 Bft) 97,87 %
24.02.2026 09:42 9,7 °C 10,0 °C 6,1 °C 99 % 1019,6 hPa 0,0 l/m² 0 min 0 min 88 W/m² 0,0 km/h (0 Bft) 97,87 %
24.02.2026 09:44 9,7 °C 10,0 °C 6,1 °C 99 % 1019,6 hPa 0,0 l/m² 0 min 0 min 97 W/m² 3,2 km/h (1 Bft) 95,74 %
24.02.2026 09:46 9,7 °C 10,6 °C 6,1 °C 99 % 1019,7 hPa 0,0 l/m² 0 min 0 min 119 W/m² 0,0 km/h (0 Bft) 93,62 %
24.02.2026 09:48 9,8 °C 10,6 °C 6,7 °C 99 % 1019,7 hPa 0,0 l/m² 0 min 0 min 105 W/m² 3,2 km/h (1 Bft) 95,65 %
24.02.2026 09:50 9,8 °C 10,0 °C 6,7 °C 99 % 1019,8 hPa 0,0 l/m² 0 min 0 min 90 W/m² 9,7 km/h (2 Bft) 97,87 %
24.02.2026 09:52 9,8 °C 10,0 °C 6,7 °C 99 % 1019,8 hPa 0,0 l/m² 0 min 0 min 105 W/m² 3,2 km/h (1 Bft) 97,87 %
24.02.2026 09:54 9,8 °C 10,0 °C 6,7 °C 99 % 1019,8 hPa 0,0 l/m² 0 min 0 min 101 W/m² 3,2 km/h (1 Bft) 97,87 %
24.02.2026 09:56 9,8 °C 10,0 °C 6,7 °C 99 % 1019,8 hPa 0,0 l/m² 0 min 0 min 91 W/m² 3,2 km/h (1 Bft) 97,87 %
24.02.2026 09:58 9,9 °C 10,0 °C 6,7 °C 99 % 1019,8 hPa 0,0 l/m² 0 min 0 min 84 W/m² 0,0 km/h (0 Bft) 95,74 %
24.02.2026 10:00 9,9 °C 10,0 °C 6,7 °C 99 % 1019,8 hPa 0,0 l/m² 0 min 0 min 80 W/m² 0,0 km/h (0 Bft) 97,83 %
24.02.2026 10:02 9,9 °C 10,0 °C 6,7 °C 99 % 1019,8 hPa 0,0 l/m² 0 min 0 min 82 W/m² 0,0 km/h (0 Bft) 97,87 %
24.02.2026 10:04 9,9 °C 10,0 °C 6,7 °C 99 % 1019,7 hPa 0,0 l/m² 0 min 0 min 81 W/m² 0,0 km/h (0 Bft) 97,56 %
24.02.2026 10:06 9,9 °C 10,0 °C 6,7 °C 99 % 1019,8 hPa 0,0 l/m² 0 min 0 min 78 W/m² 6,4 km/h (2 Bft) 98,44 %
24.02.2026 10:08 9,9 °C 10,0 °C 6,7 °C 99 % 1019,8 hPa 0,0 l/m² 0 min 0 min 84 W/m² 3,2 km/h (1 Bft) 94,59 %
24.02.2026 10:10 9,9 °C 10,0 °C 6,7 °C 99 % 1019,8 hPa 0,0 l/m² 0 min 0 min 95 W/m² 3,2 km/h (1 Bft) 97,96 %
24.02.2026 10:12 10,0 °C 10,6 °C 6,7 °C 99 % 1019,8 hPa 0,0 l/m² 0 min 0 min 101 W/m² 3,2 km/h (1 Bft) 97,87 %
24.02.2026 10:14 10,0 °C 10,6 °C 6,7 °C 99 % 1019,8 hPa 0,0 l/m² 0 min 0 min 117 W/m² 6,4 km/h (2 Bft) 97,87 %
24.02.2026 10:16 10,1 °C 10,6 °C 6,7 °C 99 % 1019,8 hPa 0,0 l/m² 0 min 0 min 122 W/m² 9,7 km/h (2 Bft) 95,74 %
24.02.2026 10:18 10,1 °C 10,6 °C 6,7 °C 99 % 1019,7 hPa 0,0 l/m² 0 min 0 min 128 W/m² 12,9 km/h (3 Bft) 93,62 %
24.02.2026 10:20 10,1 °C 10,6 °C 6,7 °C 99 % 1019,8 hPa 0,0 l/m² 0 min 0 min 146 W/m² 12,9 km/h (3 Bft) 95,74 %
24.02.2026 10:22 10,1 °C 10,6 °C 6,7 °C 99 % 1019,8 hPa 0,0 l/m² 0 min 0 min 148 W/m² 9,7 km/h (2 Bft) 95,65 %
24.02.2026 10:24 10,1 °C 10,6 °C 6,7 °C 99 % 1019,8 hPa 0,0 l/m² 0 min 0 min 119 W/m² 12,9 km/h (3 Bft) 95,74 %
24.02.2026 10:26 10,1 °C 10,6 °C 6,7 °C 99 % 1019,8 hPa 0,0 l/m² 0 min 0 min 103 W/m² 6,4 km/h (2 Bft) 91,49 %
24.02.2026 10:28 10,1 °C 10,6 °C 6,7 °C 99 % 1019,8 hPa 0,0 l/m² 0 min 0 min 100 W/m² 6,4 km/h (2 Bft) 91,49 %
24.02.2026 10:30 10,1 °C 10,6 °C 6,7 °C 99 % 1019,8 hPa 0,0 l/m² 0 min 0 min 120 W/m² 3,2 km/h (1 Bft) 97,87 %
24.02.2026 10:32 10,1 °C 10,6 °C 6,7 °C 99 % 1019,8 hPa 0,0 l/m² 0 min 0 min 131 W/m² 6,4 km/h (2 Bft) 97,87 %
24.02.2026 10:34 10,2 °C 10,6 °C 6,7 °C 99 % 1019,8 hPa 0,0 l/m² 0 min 0 min 131 W/m² 6,4 km/h (2 Bft) 95,74 %
24.02.2026 10:36 10,2 °C 10,6 °C 6,7 °C 99 % 1019,8 hPa 0,0 l/m² 0 min 0 min 134 W/m² 9,7 km/h (2 Bft) 97,87 %
24.02.2026 10:38 10,2 °C 10,6 °C 6,7 °C 99 % 1019,8 hPa 0,0 l/m² 0 min 0 min 119 W/m² 6,4 km/h (2 Bft) 95,74 %
24.02.2026 10:40 10,3 °C 10,6 °C 6,7 °C 99 % 1019,8 hPa 0,0 l/m² 0 min 0 min 120 W/m² 3,2 km/h (1 Bft) 97,87 %
24.02.2026 10:42 10,3 °C 10,6 °C 6,7 °C 99 % 1019,7 hPa 0,0 l/m² 0 min 0 min 117 W/m² 6,4 km/h (2 Bft) 97,87 %
24.02.2026 10:44 10,3 °C 10,6 °C 6,7 °C 99 % 1019,8 hPa 0,0 l/m² 0 min 0 min 108 W/m² 6,4 km/h (2 Bft) 95,65 %
24.02.2026 10:46 10,3 °C 10,6 °C 6,7 °C 99 % 1019,8 hPa 0,0 l/m² 0 min 0 min 106 W/m² 6,4 km/h (2 Bft) 97,87 %
24.02.2026 10:48 10,3 °C 10,6 °C 6,7 °C 99 % 1019,8 hPa 0,0 l/m² 0 min 0 min 108 W/m² 6,4 km/h (2 Bft) 97,87 %
24.02.2026 10:50 10,4 °C 10,6 °C 6,7 °C 99 % 1019,8 hPa 0,0 l/m² 0 min 0 min 107 W/m² 3,2 km/h (1 Bft) 97,87 %
24.02.2026 10:52 10,4 °C 10,6 °C 6,7 °C 99 % 1019,8 hPa 0,0 l/m² 0 min 0 min 106 W/m² 9,7 km/h (2 Bft) 95,74 %
24.02.2026 10:54 10,4 °C 10,6 °C 6,7 °C 99 % 1019,8 hPa 0,0 l/m² 0 min 0 min 103 W/m² 6,4 km/h (2 Bft) 97,87 %
24.02.2026 10:56 10,4 °C 10,6 °C 6,7 °C 99 % 1019,8 hPa 0,0 l/m² 0 min 0 min 104 W/m² 6,4 km/h (2 Bft) 97,83 %
24.02.2026 10:58 10,4 °C 10,6 °C 7,2 °C 99 % 1019,8 hPa 0,0 l/m² 0 min 0 min 101 W/m² 6,4 km/h (2 Bft) 97,87 %
24.02.2026 11:00 10,4 °C 10,6 °C 7,2 °C 99 % 1019,8 hPa 0,0 l/m² 0 min 0 min 104 W/m² 6,4 km/h (2 Bft) 48,84 %
24.02.2026 11:02 10,4 °C 10,6 °C 7,2 °C 99 % 1019,8 hPa 0,0 l/m² 0 min 0 min 100 W/m² 9,7 km/h (2 Bft) 95,74 %
24.02.2026 11:04 10,4 °C 10,6 °C 7,2 °C 99 % 1019,8 hPa 0,0 l/m² 0 min 0 min 90 W/m² 9,7 km/h (2 Bft) 100,00 %
24.02.2026 11:06 10,4 °C 10,6 °C 7,2 °C 99 % 1019,9 hPa 0,0 l/m² 0 min 0 min 87 W/m² 6,4 km/h (2 Bft) 100,00 %
24.02.2026 11:08 10,4 °C 10,6 °C 7,2 °C 99 % 1019,9 hPa 0,0 l/m² 0 min 0 min 85 W/m² 3,2 km/h (1 Bft) 97,87 %
24.02.2026 11:10 10,4 °C 10,6 °C 7,2 °C 99 % 1019,9 hPa 0,0 l/m² 0 min 0 min 85 W/m² 6,4 km/h (2 Bft) 100,00 %
24.02.2026 11:12 10,4 °C 10,6 °C 7,2 °C 99 % 1020,0 hPa 0,0 l/m² 0 min 0 min 85 W/m² 3,2 km/h (1 Bft) 100,00 %
24.02.2026 11:14 10,4 °C 10,6 °C 7,2 °C 99 % 1020,0 hPa 0,0 l/m² 0 min 0 min 90 W/m² 3,2 km/h (1 Bft) 97,87 %
24.02.2026 11:16 10,4 °C 10,6 °C 7,2 °C 99 % 1020,0 hPa 0,0 l/m² 0 min 0 min 95 W/m² 6,4 km/h (2 Bft) 95,74 %
24.02.2026 11:18 10,4 °C 10,6 °C 7,2 °C 99 % 1020,0 hPa 0,0 l/m² 0 min 0 min 100 W/m² 6,4 km/h (2 Bft) 95,74 %
24.02.2026 11:20 10,4 °C 10,6 °C 7,2 °C 99 % 1020,1 hPa 0,0 l/m² 0 min 0 min 100 W/m² 3,2 km/h (1 Bft) 97,87 %
24.02.2026 11:22 10,5 °C 10,6 °C 7,2 °C 99 % 1020,1 hPa 0,0 l/m² 0 min 0 min 89 W/m² 3,2 km/h (1 Bft) 97,87 %
24.02.2026 11:24 10,5 °C 10,6 °C 7,2 °C 99 % 1020,1 hPa 0,0 l/m² 0 min 0 min 88 W/m² 6,4 km/h (2 Bft) 97,87 %
24.02.2026 11:26 10,5 °C 10,6 °C 7,2 °C 99 % 1020,1 hPa 0,0 l/m² 0 min 0 min 86 W/m² 3,2 km/h (1 Bft) 97,83 %
24.02.2026 11:28 10,6 °C 10,6 °C 7,2 °C 99 % 1020,1 hPa 0,0 l/m² 0 min 0 min 93 W/m² 3,2 km/h (1 Bft) 97,87 %
24.02.2026 11:30 10,6 °C 10,6 °C 7,2 °C 99 % 1020,1 hPa 0,0 l/m² 0 min 0 min 85 W/m² 6,4 km/h (2 Bft) 97,87 %
24.02.2026 11:32 10,6 °C 10,6 °C 7,2 °C 99 % 1020,1 hPa 0,0 l/m² 0 min 0 min 79 W/m² 3,2 km/h (1 Bft) 97,87 %
24.02.2026 11:34 10,6 °C 10,6 °C 7,2 °C 99 % 1020,0 hPa 0,0 l/m² 0 min 0 min 97 W/m² 6,4 km/h (2 Bft) 95,74 %
24.02.2026 11:36 10,6 °C 10,6 °C 7,2 °C 99 % 1020,1 hPa 0,0 l/m² 0 min 0 min 111 W/m² 6,4 km/h (2 Bft) 97,83 %
24.02.2026 11:38 10,6 °C 10,6 °C 7,2 °C 99 % 1020,1 hPa 0,0 l/m² 0 min 0 min 104 W/m² 9,7 km/h (2 Bft) 97,87 %
24.02.2026 11:40 10,6 °C 11,1 °C 7,2 °C 99 % 1020,1 hPa 0,0 l/m² 0 min 0 min 106 W/m² 6,4 km/h (2 Bft) 97,87 %
24.02.2026 11:42 10,6 °C 11,1 °C 7,2 °C 99 % 1020,1 hPa 0,0 l/m² 0 min 0 min 99 W/m² 6,4 km/h (2 Bft) 97,87 %
24.02.2026 11:44 10,6 °C 11,1 °C 7,2 °C 99 % 1020,2 hPa 0,0 l/m² 0 min 0 min 87 W/m² 6,4 km/h (2 Bft) 95,74 %
24.02.2026 11:46 10,6 °C 10,6 °C 7,2 °C 99 % 1020,2 hPa 0,0 l/m² 0 min 0 min 87 W/m² 6,4 km/h (2 Bft) 100,00 %
24.02.2026 11:48 10,6 °C 10,6 °C 7,2 °C 99 % 1020,2 hPa 0,0 l/m² 0 min 0 min 90 W/m² 6,4 km/h (2 Bft) 97,83 %
24.02.2026 11:50 10,6 °C 10,6 °C 7,2 °C 99 % 1020,2 hPa 0,0 l/m² 0 min 0 min 96 W/m² 9,7 km/h (2 Bft) 100,00 %
24.02.2026 11:52 10,6 °C 10,6 °C 7,2 °C 99 % 1020,2 hPa 0,0 l/m² 0 min 0 min 83 W/m² 9,7 km/h (2 Bft) 100,00 %
24.02.2026 11:54 10,7 °C 10,6 °C 7,2 °C 99 % 1020,2 hPa 0,0 l/m² 0 min 0 min 69 W/m² 6,4 km/h (2 Bft) 100,00 %
24.02.2026 11:56 10,7 °C 10,6 °C 7,2 °C 99 % 1020,3 hPa 0,0 l/m² 0 min 0 min 63 W/m² 6,4 km/h (2 Bft) 100,00 %
24.02.2026 11:58 10,7 °C 10,6 °C 7,2 °C 99 % 1020,3 hPa 0,0 l/m² 0 min 0 min 55 W/m² 6,4 km/h (2 Bft) 100,00 %
24.02.2026 12:00 10,6 °C 10,6 °C 7,2 °C 99 % 1020,3 hPa 0,0 l/m² 0 min 0 min 52 W/m² 6,4 km/h (2 Bft) 100,00 %
24.02.2026 12:02 10,6 °C 10,6 °C 7,2 °C 99 % 1020,3 hPa 0,0 l/m² 0 min 0 min 54 W/m² 6,4 km/h (2 Bft) 100,00 %
24.02.2026 12:04 10,6 °C 10,6 °C 7,2 °C 99 % 1020,2 hPa 0,0 l/m² 0 min 0 min 58 W/m² 6,4 km/h (2 Bft) 100,00 %
24.02.2026 12:08 10,6 °C 10,6 °C 7,2 °C 99 % 1020,3 hPa 0,0 l/m² 0 min 0 min 61 W/m² 12,9 km/h (3 Bft) 100,00 %
24.02.2026 12:10 10,6 °C 10,6 °C 7,2 °C 99 % 1020,3 hPa 0,0 l/m² 0 min 0 min 65 W/m² 19,3 km/h (3 Bft) 97,37 %
24.02.2026 12:12 10,5 °C 10,6 °C 7,2 °C 99 % 1020,3 hPa 0,0 l/m² 0 min 0 min 58 W/m² 9,7 km/h (2 Bft) 97,83 %
24.02.2026 12:14 10,5 °C 10,6 °C 7,2 °C 99 % 1020,3 hPa 0,0 l/m² 0 min 0 min 53 W/m² 9,7 km/h (2 Bft) 97,87 %
24.02.2026 12:16 10,5 °C 10,6 °C 7,2 °C 99 % 1020,3 hPa 0,0 l/m² 0 min 0 min 59 W/m² 6,4 km/h (2 Bft) 97,87 %
24.02.2026 12:18 10,5 °C 10,6 °C 7,2 °C 99 % 1020,3 hPa 0,0 l/m² 0 min 0 min 63 W/m² 6,4 km/h (2 Bft) 97,87 %
24.02.2026 12:20 10,5 °C 10,0 °C 6,7 °C 99 % 1020,3 hPa 0,0 l/m² 0 min 0 min 64 W/m² 12,9 km/h (3 Bft) 100,00 %
24.02.2026 12:22 10,5 °C 10,0 °C 6,7 °C 99 % 1020,4 hPa 0,0 l/m² 0 min 0 min 60 W/m² 9,7 km/h (2 Bft) 100,00 %
24.02.2026 12:24 10,5 °C 10,0 °C 6,7 °C 99 % 1020,3 hPa 0,0 l/m² 0 min 0 min 61 W/m² 6,4 km/h (2 Bft) 97,83 %
24.02.2026 12:26 10,5 °C 10,0 °C 6,7 °C 99 % 1020,3 hPa 0,0 l/m² 0 min 0 min 58 W/m² 6,4 km/h (2 Bft) 100,00 %
24.02.2026 12:28 10,5 °C 10,0 °C 6,7 °C 99 % 1020,4 hPa 0,0 l/m² 0 min 0 min 63 W/m² 12,9 km/h (3 Bft) 100,00 %
24.02.2026 12:30 10,5 °C 10,0 °C 6,7 °C 99 % 1020,4 hPa 0,0 l/m² 0 min 0 min 70 W/m² 9,7 km/h (2 Bft) 100,00 %
24.02.2026 12:32 10,4 °C 10,0 °C 6,7 °C 99 % 1020,4 hPa 0,0 l/m² 0 min 0 min 75 W/m² 12,9 km/h (3 Bft) 100,00 %
24.02.2026 12:34 10,4 °C 10,0 °C 6,7 °C 99 % 1020,4 hPa 0,0 l/m² 0 min 0 min 88 W/m² 6,4 km/h (2 Bft) 97,83 %
24.02.2026 12:36 10,4 °C 10,0 °C 6,7 °C 99 % 1020,4 hPa 0,0 l/m² 0 min 0 min 91 W/m² 12,9 km/h (3 Bft) 95,74 %
24.02.2026 12:38 10,4 °C 10,0 °C 6,7 °C 99 % 1020,4 hPa 0,0 l/m² 0 min 0 min 90 W/m² 12,9 km/h (3 Bft) 95,74 %
24.02.2026 12:40 10,5 °C 10,0 °C 6,7 °C 99 % 1020,4 hPa 0,0 l/m² 0 min 0 min 90 W/m² 3,2 km/h (1 Bft) 97,87 %
24.02.2026 12:42 10,5 °C 10,0 °C 6,7 °C 99 % 1020,4 hPa 0,0 l/m² 0 min 0 min 91 W/m² 6,4 km/h (2 Bft) 93,62 %
24.02.2026 12:44 10,5 °C 10,0 °C 6,7 °C 99 % 1020,4 hPa 0,0 l/m² 0 min 0 min 92 W/m² 12,9 km/h (3 Bft) 95,74 %
24.02.2026 12:46 10,5 °C 10,0 °C 6,7 °C 99 % 1020,4 hPa 0,0 l/m² 0 min 0 min 92 W/m² 12,9 km/h (3 Bft) 95,65 %
24.02.2026 12:48 10,5 °C 10,0 °C 6,7 °C 99 % 1020,4 hPa 0,0 l/m² 0 min 0 min 90 W/m² 9,7 km/h (2 Bft) 97,87 %
24.02.2026 12:50 10,5 °C 10,0 °C 6,7 °C 99 % 1020,4 hPa 0,0 l/m² 0 min 0 min 91 W/m² 6,4 km/h (2 Bft) 97,87 %
24.02.2026 12:52 10,5 °C 10,0 °C 6,7 °C 99 % 1020,4 hPa 0,0 l/m² 0 min 0 min 86 W/m² 6,4 km/h (2 Bft) 97,87 %
24.02.2026 12:54 10,6 °C 10,0 °C 6,7 °C 99 % 1020,3 hPa 0,0 l/m² 0 min 0 min 85 W/m² 9,7 km/h (2 Bft) 97,87 %
24.02.2026 12:56 10,5 °C 10,0 °C 6,7 °C 99 % 1020,4 hPa 0,0 l/m² 0 min 0 min 91 W/m² 6,4 km/h (2 Bft) 95,74 %
24.02.2026 12:58 10,6 °C 10,6 °C 6,7 °C 99 % 1020,3 hPa 0,0 l/m² 0 min 0 min 96 W/m² 6,4 km/h (2 Bft) 95,65 %
24.02.2026 13:00 10,6 °C 10,6 °C 6,7 °C 99 % 1020,3 hPa 0,0 l/m² 0 min 0 min 96 W/m² 6,4 km/h (2 Bft) 97,87 %
24.02.2026 13:02 10,6 °C 10,6 °C 6,7 °C 99 % 1020,3 hPa 0,0 l/m² 0 min 0 min 97 W/m² 6,4 km/h (2 Bft) 97,87 %
24.02.2026 13:04 10,6 °C 10,6 °C 6,7 °C 99 % 1020,4 hPa 0,0 l/m² 0 min 0 min 97 W/m² 6,4 km/h (2 Bft) 97,92 %
24.02.2026 13:06 10,6 °C 10,6 °C 6,7 °C 99 % 1020,3 hPa 0,0 l/m² 0 min 0 min 97 W/m² 6,4 km/h (2 Bft) 96,55 %
24.02.2026 13:08 10,6 °C 10,6 °C 6,7 °C 98 % 1020,3 hPa 0,0 l/m² 0 min 0 min 96 W/m² 3,2 km/h (1 Bft) 94,44 %
24.02.2026 13:10 10,6 °C 10,6 °C 6,7 °C 98 % 1020,3 hPa 0,0 l/m² 0 min 0 min 91 W/m² 3,2 km/h (1 Bft) 93,48 %
24.02.2026 13:12 10,6 °C 10,6 °C 6,7 °C 98 % 1020,3 hPa 0,0 l/m² 0 min 0 min 97 W/m² 6,4 km/h (2 Bft) 91,49 %
24.02.2026 13:14 10,7 °C 10,6 °C 6,7 °C 98 % 1020,3 hPa 0,0 l/m² 0 min 0 min 97 W/m² 6,4 km/h (2 Bft) 93,62 %
24.02.2026 13:16 10,7 °C 10,6 °C 7,2 °C 98 % 1020,3 hPa 0,0 l/m² 0 min 0 min 98 W/m² 6,4 km/h (2 Bft) 91,49 %
24.02.2026 13:18 10,7 °C 10,6 °C 6,7 °C 98 % 1020,4 hPa 0,0 l/m² 0 min 0 min 95 W/m² 6,4 km/h (2 Bft) 93,62 %
24.02.2026 13:20 10,7 °C 10,6 °C 6,7 °C 98 % 1020,3 hPa 0,0 l/m² 0 min 0 min 103 W/m² 6,4 km/h (2 Bft) 93,62 %
24.02.2026 13:22 10,7 °C 10,6 °C 7,2 °C 98 % 1020,4 hPa 0,0 l/m² 0 min 0 min 110 W/m² 12,9 km/h (3 Bft) 93,48 %
24.02.2026 13:24 10,7 °C 10,6 °C 7,2 °C 98 % 1020,4 hPa 0,0 l/m² 0 min 0 min 119 W/m² 6,4 km/h (2 Bft) 95,74 %
24.02.2026 13:26 10,7 °C 10,6 °C 7,2 °C 98 % 1020,4 hPa 0,0 l/m² 0 min 0 min 120 W/m² 9,7 km/h (2 Bft) 95,74 %
24.02.2026 13:28 10,7 °C 10,6 °C 7,2 °C 98 % 1020,3 hPa 0,0 l/m² 0 min 0 min 125 W/m² 9,7 km/h (2 Bft) 93,62 %
24.02.2026 13:30 10,8 °C 10,6 °C 7,2 °C 98 % 1020,3 hPa 0,0 l/m² 0 min 0 min 126 W/m² 6,4 km/h (2 Bft) 95,74 %
24.02.2026 13:32 10,8 °C 10,6 °C 7,2 °C 99 % 1020,3 hPa 0,0 l/m² 0 min 0 min 119 W/m² 6,4 km/h (2 Bft) 95,74 %
24.02.2026 13:34 10,8 °C 10,6 °C 7,2 °C 99 % 1020,3 hPa 0,0 l/m² 0 min 0 min 113 W/m² 6,4 km/h (2 Bft) 91,30 %
24.02.2026 13:36 10,8 °C 10,6 °C 7,2 °C 99 % 1020,3 hPa 0,0 l/m² 0 min 0 min 112 W/m² 12,9 km/h (3 Bft) 95,74 %
24.02.2026 13:38 10,8 °C 10,6 °C 7,2 °C 99 % 1020,3 hPa 0,0 l/m² 0 min 0 min 116 W/m² 9,7 km/h (2 Bft) 95,74 %
24.02.2026 13:40 10,8 °C 10,6 °C 7,2 °C 99 % 1020,3 hPa 0,0 l/m² 0 min 0 min 117 W/m² 9,7 km/h (2 Bft) 93,62 %
24.02.2026 13:42 10,8 °C 11,1 °C 7,2 °C 99 % 1020,3 hPa 0,0 l/m² 0 min 0 min 114 W/m² 3,2 km/h (1 Bft) 95,74 %
24.02.2026 13:44 10,8 °C 11,1 °C 7,2 °C 99 % 1020,3 hPa 0,0 l/m² 0 min 0 min 109 W/m² 6,4 km/h (2 Bft) 97,87 %
24.02.2026 13:46 10,9 °C 11,1 °C 7,2 °C 99 % 1020,3 hPa 0,0 l/m² 0 min 0 min 104 W/m² 9,7 km/h (2 Bft) 97,83 %
24.02.2026 13:48 10,9 °C 11,1 °C 7,2 °C 99 % 1020,3 hPa 0,0 l/m² 0 min 0 min 99 W/m² 3,2 km/h (1 Bft) 97,87 %
24.02.2026 13:50 10,9 °C 10,6 °C 7,2 °C 99 % 1020,3 hPa 0,0 l/m² 0 min 0 min 102 W/m² 6,4 km/h (2 Bft) 95,74 %
24.02.2026 13:52 10,9 °C 11,1 °C 7,2 °C 99 % 1020,3 hPa 0,0 l/m² 0 min 0 min 109 W/m² 3,2 km/h (1 Bft) 95,74 %
24.02.2026 13:54 10,9 °C 11,1 °C 7,2 °C 99 % 1020,3 hPa 0,0 l/m² 0 min 0 min 113 W/m² 6,4 km/h (2 Bft) 97,87 %
24.02.2026 13:56 10,9 °C 11,1 °C 7,2 °C 99 % 1020,3 hPa 0,0 l/m² 0 min 0 min 119 W/m² 3,2 km/h (1 Bft) 97,83 %
24.02.2026 13:58 10,9 °C 11,1 °C 7,2 °C 99 % 1020,2 hPa 0,0 l/m² 0 min 0 min 113 W/m² 3,2 km/h (1 Bft) 100,00 %
24.02.2026 14:00 11,0 °C 11,1 °C 7,2 °C 99 % 1020,3 hPa 0,0 l/m² 0 min 0 min 114 W/m² 6,4 km/h (2 Bft) 100,00 %
24.02.2026 14:02 11,0 °C 11,1 °C 7,8 °C 99 % 1020,2 hPa 0,0 l/m² 0 min 0 min 124 W/m² 6,4 km/h (2 Bft) 97,87 %
24.02.2026 14:04 11,1 °C 11,7 °C 7,8 °C 99 % 1020,3 hPa 0,0 l/m² 0 min 0 min 120 W/m² 6,4 km/h (2 Bft) 100,00 %
24.02.2026 14:06 11,1 °C 11,7 °C 7,8 °C 99 % 1020,3 hPa 0,0 l/m² 0 min 0 min 116 W/m² 3,2 km/h (1 Bft) 97,87 %
24.02.2026 14:08 11,1 °C 11,7 °C 7,8 °C 99 % 1020,3 hPa 0,0 l/m² 0 min 0 min 114 W/m² 6,4 km/h (2 Bft) 100,00 %
24.02.2026 14:10 11,1 °C 11,7 °C 7,8 °C 99 % 1020,3 hPa 0,0 l/m² 0 min 0 min 105 W/m² 6,4 km/h (2 Bft) 97,87 %
24.02.2026 14:12 11,1 °C 11,7 °C 7,8 °C 99 % 1020,3 hPa 0,0 l/m² 0 min 0 min 100 W/m² 3,2 km/h (1 Bft) 100,00 %
24.02.2026 14:14 11,2 °C 11,7 °C 7,8 °C 99 % 1020,3 hPa 0,0 l/m² 0 min 0 min 105 W/m² 3,2 km/h (1 Bft) 100,00 %
24.02.2026 14:16 11,2 °C 11,7 °C 7,8 °C 99 % 1020,3 hPa 0,0 l/m² 0 min 0 min 111 W/m² 6,4 km/h (2 Bft) 100,00 %
24.02.2026 14:18 11,2 °C 11,7 °C 7,8 °C 99 % 1020,3 hPa 0,0 l/m² 0 min 0 min 128 W/m² 3,2 km/h (1 Bft) 100,00 %
24.02.2026 14:20 11,2 °C 11,7 °C 7,8 °C 99 % 1020,3 hPa 0,0 l/m² 0 min 0 min 132 W/m² 3,2 km/h (1 Bft) 100,00 %
24.02.2026 14:22 11,2 °C 11,7 °C 7,8 °C 99 % 1020,4 hPa 0,0 l/m² 0 min 0 min 144 W/m² 6,4 km/h (2 Bft) 100,00 %
24.02.2026 14:24 11,3 °C 11,7 °C 7,8 °C 99 % 1020,3 hPa 0,0 l/m² 0 min 0 min 153 W/m² 6,4 km/h (2 Bft) 97,87 %
24.02.2026 14:26 11,3 °C 12,2 °C 7,8 °C 99 % 1020,3 hPa 0,0 l/m² 0 min 0 min 160 W/m² 6,4 km/h (2 Bft) 100,00 %
24.02.2026 14:28 11,3 °C 12,2 °C 8,3 °C 99 % 1020,2 hPa 0,0 l/m² 0 min 0 min 168 W/m² 3,2 km/h (1 Bft) 97,87 %
24.02.2026 14:30 11,3 °C 12,2 °C 8,3 °C 99 % 1020,1 hPa 0,0 l/m² 0 min 0 min 161 W/m² 3,2 km/h (1 Bft) 100,00 %
24.02.2026 14:32 11,4 °C 12,2 °C 8,3 °C 99 % 1020,2 hPa 0,0 l/m² 0 min 0 min 144 W/m² 6,4 km/h (2 Bft) 100,00 %
24.02.2026 14:34 11,4 °C 12,2 °C 8,3 °C 99 % 1020,1 hPa 0,0 l/m² 0 min 0 min 136 W/m² 6,4 km/h (2 Bft) 100,00 %
24.02.2026 14:36 11,4 °C 12,2 °C 8,3 °C 99 % 1020,2 hPa 0,0 l/m² 0 min 0 min 134 W/m² 6,4 km/h (2 Bft) 100,00 %
24.02.2026 14:38 11,5 °C 12,2 °C 8,3 °C 99 % 1020,1 hPa 0,0 l/m² 0 min 0 min 128 W/m² 3,2 km/h (1 Bft) 100,00 %
24.02.2026 14:40 11,5 °C 12,2 °C 8,3 °C 99 % 1020,2 hPa 0,0 l/m² 0 min 0 min 122 W/m² 3,2 km/h (1 Bft) 97,87 %
24.02.2026 14:42 11,5 °C 12,2 °C 8,3 °C 99 % 1020,1 hPa 0,0 l/m² 0 min 0 min 125 W/m² 0,0 km/h (0 Bft) 95,74 %
24.02.2026 14:44 11,6 °C 12,2 °C 8,3 °C 99 % 1020,1 hPa 0,0 l/m² 0 min 0 min 122 W/m² 3,2 km/h (1 Bft) 100,00 %
24.02.2026 14:46 11,6 °C 12,2 °C 8,3 °C 99 % 1020,1 hPa 0,0 l/m² 0 min 0 min 111 W/m² 3,2 km/h (1 Bft) 100,00 %
24.02.2026 14:48 11,6 °C 12,2 °C 8,3 °C 99 % 1020,1 hPa 0,0 l/m² 0 min 0 min 100 W/m² 3,2 km/h (1 Bft) 100,00 %
24.02.2026 14:50 11,6 °C 12,2 °C 8,3 °C 99 % 1020,1 hPa 0,0 l/m² 0 min 0 min 107 W/m² 3,2 km/h (1 Bft) 100,00 %
24.02.2026 14:52 11,6 °C 12,2 °C 8,3 °C 99 % 1020,1 hPa 0,0 l/m² 0 min 0 min 104 W/m² 3,2 km/h (1 Bft) 97,87 %
24.02.2026 14:54 11,6 °C 12,2 °C 8,3 °C 99 % 1020,1 hPa 0,0 l/m² 0 min 0 min 99 W/m² 6,4 km/h (2 Bft) 97,87 %
24.02.2026 14:56 11,6 °C 12,2 °C 8,3 °C 99 % 1020,1 hPa 0,0 l/m² 0 min 0 min 123 W/m² 3,2 km/h (1 Bft) 97,87 %
24.02.2026 14:58 11,7 °C 12,2 °C 8,3 °C 99 % 1020,1 hPa 0,0 l/m² 0 min 0 min 145 W/m² 3,2 km/h (1 Bft) 100,00 %
24.02.2026 15:00 11,7 °C 12,2 °C 8,3 °C 99 % 1020,1 hPa 0,0 l/m² 0 min 0 min 155 W/m² 6,4 km/h (2 Bft) 100,00 %
24.02.2026 15:02 11,7 °C 12,2 °C 8,3 °C 99 % 1020,1 hPa 0,0 l/m² 0 min 0 min 140 W/m² 3,2 km/h (1 Bft) 98,11 %
24.02.2026 15:04 11,7 °C 12,8 °C 8,9 °C 99 % 1020,1 hPa 0,0 l/m² 0 min 0 min 128 W/m² 0,0 km/h (0 Bft) 100,00 %
24.02.2026 15:06 11,7 °C 12,2 °C 8,9 °C 99 % 1020,0 hPa 0,0 l/m² 0 min 0 min 109 W/m² 3,2 km/h (1 Bft) 95,65 %
24.02.2026 15:08 11,8 °C 12,2 °C 8,9 °C 99 % 1020,0 hPa 0,0 l/m² 0 min 0 min 99 W/m² 3,2 km/h (1 Bft) 97,87 %
24.02.2026 15:10 11,8 °C 12,2 °C 8,3 °C 99 % 1020,0 hPa 0,0 l/m² 0 min 0 min 94 W/m² 3,2 km/h (1 Bft) 97,87 %
24.02.2026 15:12 11,8 °C 12,2 °C 8,3 °C 99 % 1020,0 hPa 0,0 l/m² 0 min 0 min 89 W/m² 6,4 km/h (2 Bft) 95,74 %
24.02.2026 15:14 11,8 °C 12,2 °C 8,3 °C 99 % 1020,0 hPa 0,0 l/m² 0 min 0 min 89 W/m² 3,2 km/h (1 Bft) 100,00 %
24.02.2026 15:16 11,8 °C 12,2 °C 8,3 °C 99 % 1020,0 hPa 0,0 l/m² 0 min 0 min 90 W/m² 3,2 km/h (1 Bft) 97,87 %
24.02.2026 15:18 11,8 °C 12,2 °C 8,3 °C 99 % 1020,0 hPa 0,0 l/m² 0 min 0 min 110 W/m² 6,4 km/h (2 Bft) 97,83 %
24.02.2026 15:20 11,8 °C 12,2 °C 8,3 °C 99 % 1020,0 hPa 0,0 l/m² 0 min 0 min 101 W/m² 0,0 km/h (0 Bft) 95,74 %
24.02.2026 15:22 11,8 °C 12,2 °C 8,3 °C 99 % 1020,0 hPa 0,0 l/m² 0 min 0 min 85 W/m² 0,0 km/h (0 Bft) 93,62 %
24.02.2026 15:24 11,8 °C 12,2 °C 8,9 °C 99 % 1020,0 hPa 0,0 l/m² 0 min 0 min 85 W/m² 0,0 km/h (0 Bft) 97,87 %
24.02.2026 15:26 11,8 °C 12,2 °C 8,9 °C 99 % 1019,9 hPa 0,0 l/m² 0 min 0 min 84 W/m² 0,0 km/h (0 Bft) 97,87 %
24.02.2026 15:28 11,9 °C 12,8 °C 8,9 °C 99 % 1019,9 hPa 0,0 l/m² 0 min 0 min 73 W/m² 0,0 km/h (0 Bft) 95,74 %
24.02.2026 15:30 11,9 °C 12,8 °C 8,9 °C 99 % 1020,0 hPa 0,0 l/m² 0 min 0 min 61 W/m² 0,0 km/h (0 Bft) 95,65 %
24.02.2026 15:32 11,9 °C 12,2 °C 8,9 °C 99 % 1020,0 hPa 0,0 l/m² 0 min 0 min 51 W/m² 0,0 km/h (0 Bft) 91,49 %
24.02.2026 15:34 12,0 °C 12,2 °C 8,9 °C 99 % 1020,0 hPa 0,0 l/m² 0 min 0 min 45 W/m² 0,0 km/h (0 Bft) 95,74 %
24.02.2026 15:36 12,0 °C 12,2 °C 8,9 °C 99 % 1020,0 hPa 0,0 l/m² 0 min 0 min 38 W/m² 0,0 km/h (0 Bft) 95,74 %
24.02.2026 15:38 12,0 °C 12,2 °C 8,3 °C 99 % 1020,1 hPa 0,0 l/m² 0 min 0 min 32 W/m² 0,0 km/h (0 Bft) 95,74 %
24.02.2026 15:40 12,0 °C 12,2 °C 8,3 °C 99 % 1020,0 hPa 0,0 l/m² 0 min 0 min 30 W/m² 0,0 km/h (0 Bft) 97,87 %
24.02.2026 15:42 12,0 °C 12,2 °C 8,3 °C 99 % 1020,0 hPa 0,0 l/m² 0 min 0 min 30 W/m² 0,0 km/h (0 Bft) 95,65 %
24.02.2026 15:44 12,0 °C 12,2 °C 8,3 °C 99 % 1020,1 hPa 0,0 l/m² 0 min 0 min 25 W/m² 0,0 km/h (0 Bft) 95,74 %
24.02.2026 15:46 12,0 °C 12,2 °C 8,3 °C 99 % 1020,1 hPa 0,0 l/m² 0 min 0 min 23 W/m² 0,0 km/h (0 Bft) 97,87 %
24.02.2026 15:48 12,0 °C 12,2 °C 8,3 °C 99 % 1020,1 hPa 0,0 l/m² 0 min 0 min 26 W/m² 0,0 km/h (0 Bft) 97,87 %
24.02.2026 15:50 12,0 °C 12,2 °C 8,3 °C 99 % 1020,2 hPa 0,0 l/m² 0 min 0 min 31 W/m² 0,0 km/h (0 Bft) 97,87 %
24.02.2026 15:52 12,1 °C 12,2 °C 8,3 °C 98 % 1020,1 hPa 0,0 l/m² 0 min 0 min 36 W/m² 0,0 km/h (0 Bft) 95,74 %
24.02.2026 15:54 12,1 °C 12,2 °C 8,3 °C 98 % 1020,1 hPa 0,0 l/m² 0 min 0 min 37 W/m² 0,0 km/h (0 Bft) 95,92 %
24.02.2026 15:56 12,1 °C 12,2 °C 8,3 °C 98 % 1020,1 hPa 0,0 l/m² 0 min 0 min 37 W/m² 0,0 km/h (0 Bft) 91,49 %
24.02.2026 15:58 12,1 °C 12,2 °C 8,3 °C 98 % 1020,1 hPa 0,0 l/m² 0 min 0 min 35 W/m² 0,0 km/h (0 Bft) 93,75 %
24.02.2026 16:00 12,1 °C 11,7 °C 8,3 °C 98 % 1020,1 hPa 0,0 l/m² 0 min 0 min 34 W/m² 0,0 km/h (0 Bft) 95,65 %
24.02.2026 16:02 12,1 °C 11,7 °C 8,3 °C 98 % 1020,1 hPa 0,0 l/m² 0 min 0 min 37 W/m² 0,0 km/h (0 Bft) 93,62 %
24.02.2026 16:04 12,1 °C 12,2 °C 8,3 °C 98 % 1020,1 hPa 0,0 l/m² 0 min 0 min 42 W/m² 0,0 km/h (0 Bft) 92,86 %
24.02.2026 16:06 12,1 °C 12,2 °C 8,3 °C 98 % 1020,1 hPa 0,0 l/m² 0 min 0 min 50 W/m² 0,0 km/h (0 Bft) 96,15 %
24.02.2026 16:08 12,1 °C 11,7 °C 8,3 °C 98 % 1020,0 hPa 0,0 l/m² 0 min 0 min 51 W/m² 3,2 km/h (1 Bft) 92,68 %
24.02.2026 16:10 12,1 °C 11,7 °C 8,3 °C 98 % 1020,0 hPa 0,0 l/m² 0 min 0 min 43 W/m² 6,4 km/h (2 Bft) 95,74 %
24.02.2026 16:12 12,1 °C 12,2 °C 8,3 °C 98 % 1020,1 hPa 0,0 l/m² 0 min 0 min 40 W/m² 3,2 km/h (1 Bft) 95,74 %
24.02.2026 16:14 12,1 °C 11,7 °C 8,3 °C 98 % 1020,1 hPa 0,0 l/m² 0 min 0 min 42 W/m² 6,4 km/h (2 Bft) 95,74 %
24.02.2026 16:16 12,1 °C 11,7 °C 8,3 °C 98 % 1020,1 hPa 0,0 l/m² 0 min 0 min 49 W/m² 3,2 km/h (1 Bft) 91,49 %
24.02.2026 16:18 12,1 °C 11,7 °C 8,3 °C 98 % 1020,1 hPa 0,0 l/m² 0 min 0 min 51 W/m² 3,2 km/h (1 Bft) 95,65 %
24.02.2026 16:20 12,1 °C 11,7 °C 8,3 °C 98 % 1020,1 hPa 0,0 l/m² 0 min 0 min 42 W/m² 6,4 km/h (2 Bft) 97,87 %
24.02.2026 16:22 12,1 °C 11,7 °C 8,3 °C 98 % 1020,2 hPa 0,0 l/m² 0 min 0 min 36 W/m² 3,2 km/h (1 Bft) 97,87 %
24.02.2026 16:24 12,1 °C 11,7 °C 8,3 °C 98 % 1020,3 hPa 0,0 l/m² 0 min 0 min 32 W/m² 6,4 km/h (2 Bft) 97,87 %
24.02.2026 16:26 12,1 °C 11,7 °C 8,3 °C 98 % 1020,3 hPa 0,0 l/m² 0 min 0 min 34 W/m² 6,4 km/h (2 Bft) 97,87 %
24.02.2026 16:28 12,1 °C 11,7 °C 8,3 °C 98 % 1020,3 hPa 0,0 l/m² 0 min 0 min 33 W/m² 6,4 km/h (2 Bft) 97,87 %
24.02.2026 16:30 12,1 °C 11,7 °C 7,8 °C 98 % 1020,3 hPa 0,0 l/m² 0 min 0 min 26 W/m² 3,2 km/h (1 Bft) 97,83 %
24.02.2026 16:32 12,1 °C 11,7 °C 7,8 °C 98 % 1020,3 hPa 0,0 l/m² 0 min 0 min 19 W/m² 3,2 km/h (1 Bft) 97,87 %
24.02.2026 16:34 12,1 °C 11,7 °C 7,8 °C 98 % 1020,4 hPa 0,0 l/m² 0 min 0 min 19 W/m² 6,4 km/h (2 Bft) 95,74 %
24.02.2026 16:36 12,1 °C 11,7 °C 7,8 °C 98 % 1020,4 hPa 0,0 l/m² 0 min 0 min 21 W/m² 6,4 km/h (2 Bft) 100,00 %
24.02.2026 16:38 12,1 °C 11,1 °C 7,8 °C 98 % 1020,5 hPa 0,0 l/m² 0 min 0 min 18 W/m² 3,2 km/h (1 Bft) 100,00 %
24.02.2026 16:40 12,1 °C 11,1 °C 7,8 °C 98 % 1020,4 hPa 0,0 l/m² 0 min 0 min 17 W/m² 6,4 km/h (2 Bft) 100,00 %
24.02.2026 16:42 12,1 °C 11,1 °C 7,8 °C 98 % 1020,5 hPa 0,0 l/m² 0 min 0 min 16 W/m² 3,2 km/h (1 Bft) 100,00 %
24.02.2026 16:44 12,1 °C 11,1 °C 7,8 °C 98 % 1020,4 hPa 0,0 l/m² 0 min 0 min 17 W/m² 12,9 km/h (3 Bft) 100,00 %
24.02.2026 16:46 12,0 °C 11,1 °C 7,8 °C 98 % 1020,4 hPa 0,0 l/m² 0 min 0 min 19 W/m² 6,4 km/h (2 Bft) 100,00 %
24.02.2026 16:48 12,0 °C 11,1 °C 7,8 °C 98 % 1020,5 hPa 0,0 l/m² 0 min 0 min 19 W/m² 6,4 km/h (2 Bft) 100,00 %
24.02.2026 16:50 12,0 °C 11,1 °C 7,8 °C 98 % 1020,4 hPa 0,0 l/m² 0 min 0 min 20 W/m² 9,7 km/h (2 Bft) 100,00 %
24.02.2026 16:52 12,0 °C 11,1 °C 7,8 °C 98 % 1020,4 hPa 0,0 l/m² 0 min 0 min 20 W/m² 6,4 km/h (2 Bft) 97,87 %
24.02.2026 16:54 11,9 °C 11,1 °C 7,8 °C 98 % 1020,4 hPa 0,0 l/m² 0 min 0 min 19 W/m² 6,4 km/h (2 Bft) 100,00 %
24.02.2026 16:56 11,9 °C 11,1 °C 7,8 °C 98 % 1020,4 hPa 0,0 l/m² 0 min 0 min 21 W/m² 12,9 km/h (3 Bft) 100,00 %
24.02.2026 16:58 11,9 °C 11,1 °C 7,8 °C 98 % 1020,4 hPa 0,0 l/m² 0 min 0 min 25 W/m² 9,7 km/h (2 Bft) 98,00 %
24.02.2026 17:00 11,9 °C 11,1 °C 7,8 °C 98 % 1020,4 hPa 0,0 l/m² 0 min 0 min 24 W/m² 3,2 km/h (1 Bft) 100,00 %
24.02.2026 17:02 11,9 °C 11,1 °C 7,8 °C 98 % 1020,3 hPa 0,0 l/m² 0 min 0 min 20 W/m² 6,4 km/h (2 Bft) 97,87 %
24.02.2026 17:04 11,9 °C 11,1 °C 7,8 °C 98 % 1020,3 hPa 0,0 l/m² 0 min 0 min 20 W/m² 6,4 km/h (2 Bft) 95,92 %
24.02.2026 17:06 11,8 °C 11,1 °C 7,8 °C 98 % 1020,3 hPa 0,0 l/m² 0 min 0 min 21 W/m² 6,4 km/h (2 Bft) 97,87 %
24.02.2026 17:08 11,8 °C 11,1 °C 7,8 °C 98 % 1020,3 hPa 0,0 l/m² 0 min 0 min 22 W/m² 6,4 km/h (2 Bft) 97,92 %
24.02.2026 17:10 11,8 °C 11,1 °C 7,8 °C 98 % 1020,4 hPa 0,0 l/m² 0 min 0 min 22 W/m² 6,4 km/h (2 Bft) 97,83 %
24.02.2026 17:12 11,8 °C 11,1 °C 7,8 °C 98 % 1020,4 hPa 0,0 l/m² 0 min 0 min 21 W/m² 6,4 km/h (2 Bft) 97,87 %
24.02.2026 17:14 11,8 °C 11,1 °C 7,8 °C 98 % 1020,4 hPa 0,0 l/m² 0 min 0 min 18 W/m² 6,4 km/h (2 Bft) 97,87 %
24.02.2026 17:16 11,8 °C 11,1 °C 7,8 °C 98 % 1020,4 hPa 0,0 l/m² 0 min 0 min 13 W/m² 3,2 km/h (1 Bft) 95,74 %
24.02.2026 17:18 11,8 °C 11,1 °C 7,8 °C 98 % 1020,4 hPa 0,0 l/m² 0 min 0 min 12 W/m² 6,4 km/h (2 Bft) 97,87 %
24.02.2026 17:20 11,8 °C 11,1 °C 7,8 °C 98 % 1020,4 hPa 0,0 l/m² 0 min 0 min 11 W/m² 3,2 km/h (1 Bft) 95,74 %
24.02.2026 17:22 11,8 °C 11,1 °C 7,2 °C 98 % 1020,4 hPa 0,0 l/m² 0 min 0 min 12 W/m² 3,2 km/h (1 Bft) 95,65 %
24.02.2026 17:24 11,8 °C 11,1 °C 7,2 °C 98 % 1020,3 hPa 0,0 l/m² 0 min 0 min 13 W/m² 6,4 km/h (2 Bft) 97,87 %
24.02.2026 17:26 11,8 °C 11,1 °C 7,2 °C 98 % 1020,3 hPa 0,0 l/m² 0 min 0 min 12 W/m² 6,4 km/h (2 Bft) 97,87 %
24.02.2026 17:28 11,8 °C 10,6 °C 7,2 °C 98 % 1020,3 hPa 0,0 l/m² 0 min 0 min 11 W/m² 6,4 km/h (2 Bft) 97,87 %
24.02.2026 17:30 11,8 °C 10,6 °C 7,2 °C 98 % 1020,3 hPa 0,0 l/m² 0 min 0 min 11 W/m² 3,2 km/h (1 Bft) 97,87 %
24.02.2026 17:32 11,8 °C 10,6 °C 7,2 °C 98 % 1020,4 hPa 0,0 l/m² 0 min 0 min 10 W/m² 6,4 km/h (2 Bft) 95,74 %
24.02.2026 17:34 11,7 °C 10,6 °C 7,2 °C 98 % 1020,4 hPa 0,0 l/m² 0 min 0 min 8 W/m² 6,4 km/h (2 Bft) 97,83 %
24.02.2026 17:36 11,7 °C 10,6 °C 7,2 °C 98 % 1020,4 hPa 0,0 l/m² 0 min 0 min 6 W/m² 3,2 km/h (1 Bft) 97,87 %
24.02.2026 17:38 11,7 °C 10,6 °C 7,2 °C 98 % 1020,4 hPa 0,0 l/m² 0 min 0 min 5 W/m² 9,7 km/h (2 Bft) 100,00 %
24.02.2026 17:40 11,7 °C 10,6 °C 7,2 °C 98 % 1020,5 hPa 0,0 l/m² 0 min 0 min 5 W/m² 6,4 km/h (2 Bft) 100,00 %
24.02.2026 17:42 11,7 °C 10,6 °C 7,2 °C 98 % 1020,5 hPa 0,0 l/m² 0 min 0 min 3 W/m² 12,9 km/h (3 Bft) 95,74 %
24.02.2026 17:44 11,7 °C 10,6 °C 7,2 °C 98 % 1020,4 hPa 0,0 l/m² 0 min 0 min 0 W/m² 6,4 km/h (2 Bft) 100,00 %
24.02.2026 17:46 11,7 °C 10,6 °C 7,2 °C 98 % 1020,5 hPa 0,0 l/m² 0 min 0 min 0 W/m² 3,2 km/h (1 Bft) 97,83 %
24.02.2026 17:48 11,7 °C 10,6 °C 7,2 °C 98 % 1020,5 hPa 0,0 l/m² 0 min 0 min 0 W/m² 3,2 km/h (1 Bft) 100,00 %
24.02.2026 17:50 11,7 °C 10,6 °C 7,2 °C 98 % 1020,5 hPa 0,0 l/m² 0 min 0 min 4 W/m² 0,0 km/h (0 Bft) 100,00 %
24.02.2026 17:52 11,6 °C 10,6 °C 7,2 °C 98 % 1020,5 hPa 0,0 l/m² 0 min 0 min 0 W/m² 3,2 km/h (1 Bft) 100,00 %
24.02.2026 17:54 11,6 °C 10,6 °C 7,2 °C 98 % 1020,5 hPa 0,0 l/m² 0 min 0 min 0 W/m² 3,2 km/h (1 Bft) 100,00 %
24.02.2026 17:56 11,6 °C 10,6 °C 7,2 °C 98 % 1020,5 hPa 0,0 l/m² 0 min 0 min 0 W/m² 3,2 km/h (1 Bft) 100,00 %
24.02.2026 17:58 11,6 °C 10,6 °C 7,2 °C 98 % 1020,5 hPa 0,0 l/m² 0 min 0 min 0 W/m² 6,4 km/h (2 Bft) 100,00 %
24.02.2026 18:00 11,6 °C 10,6 °C 7,2 °C 98 % 1020,5 hPa 0,0 l/m² 0 min 0 min 0 W/m² 3,2 km/h (1 Bft) 100,00 %
24.02.2026 18:02 11,6 °C 10,6 °C 7,2 °C 98 % 1020,6 hPa 0,0 l/m² 0 min 0 min 0 W/m² 6,4 km/h (2 Bft) 100,00 %
24.02.2026 18:04 11,6 °C 10,6 °C 7,2 °C 98 % 1020,5 hPa 0,0 l/m² 0 min 0 min 0 W/m² 3,2 km/h (1 Bft) 100,00 %
24.02.2026 18:08 11,6 °C 10,6 °C 7,2 °C 98 % 1020,5 hPa 0,0 l/m² 0 min 0 min 0 W/m² 6,4 km/h (2 Bft) 98,95 %
24.02.2026 18:10 11,6 °C 10,6 °C 7,2 °C 98 % 1020,6 hPa 0,0 l/m² 0 min 0 min 0 W/m² 6,4 km/h (2 Bft) 100,00 %
24.02.2026 18:12 11,6 °C 10,6 °C 7,2 °C 98 % 1020,5 hPa 0,0 l/m² 0 min 0 min 0 W/m² 6,4 km/h (2 Bft) 97,87 %
24.02.2026 18:14 11,6 °C 10,6 °C 7,2 °C 98 % 1020,6 hPa 0,0 l/m² 0 min 0 min 0 W/m² 6,4 km/h (2 Bft) 97,87 %
24.02.2026 18:16 11,6 °C 10,6 °C 7,2 °C 98 % 1020,6 hPa 0,0 l/m² 0 min 0 min 0 W/m² 6,4 km/h (2 Bft) 97,87 %
24.02.2026 18:18 11,6 °C 10,6 °C 7,2 °C 98 % 1020,6 hPa 0,0 l/m² 0 min 0 min 0 W/m² 6,4 km/h (2 Bft) 97,87 %
24.02.2026 18:20 11,6 °C 10,6 °C 7,2 °C 98 % 1020,6 hPa 0,0 l/m² 0 min 0 min 0 W/m² 9,7 km/h (2 Bft) 97,83 %
24.02.2026 18:22 11,5 °C 10,6 °C 7,2 °C 98 % 1020,6 hPa 0,0 l/m² 0 min 0 min 0 W/m² 6,4 km/h (2 Bft) 97,87 %
24.02.2026 18:24 11,5 °C 10,6 °C 7,2 °C 98 % 1020,6 hPa 0,0 l/m² 0 min 0 min 0 W/m² 3,2 km/h (1 Bft) 97,87 %
24.02.2026 18:26 11,5 °C 10,6 °C 7,2 °C 98 % 1020,7 hPa 0,0 l/m² 0 min 0 min 0 W/m² 3,2 km/h (1 Bft) 97,87 %
24.02.2026 18:28 11,4 °C 10,6 °C 7,2 °C 98 % 1020,7 hPa 0,0 l/m² 0 min 0 min 0 W/m² 6,4 km/h (2 Bft) 97,87 %
24.02.2026 18:30 11,4 °C 10,6 °C 7,2 °C 98 % 1020,7 hPa 0,0 l/m² 0 min 0 min 0 W/m² 6,4 km/h (2 Bft) 97,87 %
24.02.2026 18:32 11,4 °C 10,6 °C 7,2 °C 98 % 1020,7 hPa 0,0 l/m² 0 min 0 min 0 W/m² 6,4 km/h (2 Bft) 97,83 %
24.02.2026 18:34 11,4 °C 10,6 °C 7,2 °C 98 % 1020,7 hPa 0,0 l/m² 0 min 0 min 0 W/m² 6,4 km/h (2 Bft) 95,74 %
24.02.2026 18:36 11,4 °C 10,6 °C 7,2 °C 98 % 1020,7 hPa 0,0 l/m² 0 min 0 min 0 W/m² 3,2 km/h (1 Bft) 97,87 %
24.02.2026 18:38 11,4 °C 10,6 °C 7,2 °C 98 % 1020,7 hPa 0,0 l/m² 0 min 0 min 0 W/m² 3,2 km/h (1 Bft) 97,87 %
24.02.2026 18:40 11,4 °C 10,6 °C 7,2 °C 98 % 1020,7 hPa 0,0 l/m² 0 min 0 min 0 W/m² 6,4 km/h (2 Bft) 97,87 %
24.02.2026 18:42 11,4 °C 10,6 °C 7,2 °C 98 % 1020,7 hPa 0,0 l/m² 0 min 0 min 0 W/m² 3,2 km/h (1 Bft) 91,89 %
24.02.2026 18:44 11,4 °C 10,6 °C 7,2 °C 98 % 1020,7 hPa 0,0 l/m² 0 min 0 min 0 W/m² 6,4 km/h (2 Bft) 95,74 %
24.02.2026 18:46 11,4 °C 10,6 °C 7,2 °C 98 % 1020,7 hPa 0,0 l/m² 0 min 0 min 0 W/m² 6,4 km/h (2 Bft) 91,49 %
24.02.2026 18:48 11,4 °C 10,6 °C 7,2 °C 98 % 1020,8 hPa 0,0 l/m² 0 min 0 min 0 W/m² 6,4 km/h (2 Bft) 93,62 %
24.02.2026 18:50 11,4 °C 10,6 °C 7,2 °C 98 % 1020,8 hPa 0,0 l/m² 0 min 0 min 0 W/m² 3,2 km/h (1 Bft) 93,62 %
24.02.2026 18:52 11,4 °C 10,6 °C 7,2 °C 98 % 1020,7 hPa 0,0 l/m² 0 min 0 min 0 W/m² 9,7 km/h (2 Bft) 93,48 %
24.02.2026 18:54 11,4 °C 10,6 °C 7,2 °C 98 % 1020,8 hPa 0,0 l/m² 0 min 0 min 0 W/m² 9,7 km/h (2 Bft) 93,62 %
24.02.2026 18:56 11,4 °C 10,6 °C 7,2 °C 98 % 1020,8 hPa 0,0 l/m² 0 min 0 min 0 W/m² 3,2 km/h (1 Bft) 95,74 %
24.02.2026 18:58 11,3 °C 10,6 °C 7,2 °C 98 % 1020,8 hPa 0,0 l/m² 0 min 0 min 0 W/m² 6,4 km/h (2 Bft) 95,74 %
24.02.2026 19:00 11,3 °C 10,6 °C 7,2 °C 98 % 1020,8 hPa 0,0 l/m² 0 min 0 min 0 W/m² 9,7 km/h (2 Bft) 93,62 %
24.02.2026 19:02 11,3 °C 10,6 °C 7,2 °C 98 % 1020,8 hPa 0,0 l/m² 0 min 0 min 0 W/m² 6,4 km/h (2 Bft) 93,62 %
24.02.2026 19:04 11,3 °C 10,6 °C 7,2 °C 98 % 1020,8 hPa 0,0 l/m² 0 min 0 min 0 W/m² 6,4 km/h (2 Bft) 95,74 %
24.02.2026 19:06 11,3 °C 10,6 °C 7,2 °C 98 % 1020,8 hPa 0,0 l/m² 0 min 0 min 0 W/m² 3,2 km/h (1 Bft) 89,66 %
24.02.2026 19:08 11,3 °C 10,6 °C 7,2 °C 98 % 1020,8 hPa 0,0 l/m² 0 min 0 min 0 W/m² 3,2 km/h (1 Bft) 94,59 %
24.02.2026 19:10 11,3 °C 10,6 °C 7,2 °C 98 % 1020,8 hPa 0,0 l/m² 0 min 0 min 0 W/m² 3,2 km/h (1 Bft) 97,83 %
24.02.2026 19:12 11,3 °C 10,6 °C 7,2 °C 98 % 1020,8 hPa 0,0 l/m² 0 min 0 min 0 W/m² 3,2 km/h (1 Bft) 95,74 %
24.02.2026 19:14 11,3 °C 10,6 °C 7,2 °C 98 % 1020,9 hPa 0,0 l/m² 0 min 0 min 0 W/m² 3,2 km/h (1 Bft) 95,74 %
24.02.2026 19:16 11,3 °C 10,6 °C 7,2 °C 98 % 1020,8 hPa 0,0 l/m² 0 min 0 min 0 W/m² 6,4 km/h (2 Bft) 95,74 %
24.02.2026 19:18 11,3 °C 10,6 °C 7,2 °C 98 % 1020,8 hPa 0,0 l/m² 0 min 0 min 0 W/m² 6,4 km/h (2 Bft) 95,74 %
24.02.2026 19:20 11,3 °C 10,6 °C 7,2 °C 98 % 1020,8 hPa 0,0 l/m² 0 min 0 min 0 W/m² 6,4 km/h (2 Bft) 95,65 %
24.02.2026 19:22 11,3 °C 10,6 °C 7,2 °C 98 % 1020,8 hPa 0,0 l/m² 0 min 0 min 0 W/m² 6,4 km/h (2 Bft) 95,74 %
24.02.2026 19:24 11,3 °C 10,6 °C 7,2 °C 98 % 1020,8 hPa 0,0 l/m² 0 min 0 min 0 W/m² 6,4 km/h (2 Bft) 95,74 %
24.02.2026 19:26 11,3 °C 10,6 °C 7,2 °C 98 % 1020,8 hPa 0,0 l/m² 0 min 0 min 0 W/m² 6,4 km/h (2 Bft) 91,49 %
24.02.2026 19:28 11,3 °C 10,6 °C 7,2 °C 98 % 1020,8 hPa 0,0 l/m² 0 min 0 min 0 W/m² 3,2 km/h (1 Bft) 95,74 %
24.02.2026 19:30 11,3 °C 10,6 °C 7,2 °C 98 % 1020,8 hPa 0,0 l/m² 0 min 0 min 0 W/m² 3,2 km/h (1 Bft) 95,74 %
24.02.2026 19:32 11,3 °C 10,6 °C 7,2 °C 99 % 1020,8 hPa 0,0 l/m² 0 min 0 min 0 W/m² 6,4 km/h (2 Bft) 100,00 %
24.02.2026 19:34 11,3 °C 10,6 °C 7,2 °C 99 % 1020,8 hPa 0,0 l/m² 0 min 0 min 0 W/m² 6,4 km/h (2 Bft) 100,00 %
24.02.2026 19:36 11,2 °C 10,6 °C 7,2 °C 99 % 1020,8 hPa 0,0 l/m² 0 min 0 min 0 W/m² 9,7 km/h (2 Bft) 95,74 %
24.02.2026 19:38 11,2 °C 10,6 °C 7,2 °C 99 % 1020,8 hPa 0,0 l/m² 0 min 0 min 0 W/m² 6,4 km/h (2 Bft) 100,00 %
24.02.2026 19:40 11,2 °C 10,6 °C 7,2 °C 99 % 1020,8 hPa 0,0 l/m² 0 min 0 min 0 W/m² 6,4 km/h (2 Bft) 97,87 %
24.02.2026 19:42 11,2 °C 10,6 °C 7,2 °C 99 % 1020,8 hPa 0,0 l/m² 0 min 0 min 0 W/m² 3,2 km/h (1 Bft) 100,00 %
24.02.2026 19:44 11,2 °C 10,6 °C 7,2 °C 99 % 1020,7 hPa 0,0 l/m² 0 min 0 min 0 W/m² 6,4 km/h (2 Bft) 100,00 %
24.02.2026 19:46 11,2 °C 10,6 °C 7,2 °C 99 % 1020,8 hPa 0,0 l/m² 0 min 0 min 0 W/m² 6,4 km/h (2 Bft) 100,00 %
24.02.2026 19:48 11,2 °C 10,6 °C 7,2 °C 99 % 1020,7 hPa 0,0 l/m² 0 min 0 min 0 W/m² 12,9 km/h (3 Bft) 100,00 %
24.02.2026 19:50 11,2 °C 10,6 °C 7,2 °C 99 % 1020,8 hPa 0,0 l/m² 0 min 0 min 0 W/m² 3,2 km/h (1 Bft) 100,00 %
24.02.2026 19:52 11,2 °C 10,6 °C 7,2 °C 99 % 1020,8 hPa 0,0 l/m² 0 min 0 min 0 W/m² 6,4 km/h (2 Bft) 97,87 %
24.02.2026 19:54 11,2 °C 10,6 °C 7,2 °C 99 % 1020,8 hPa 0,0 l/m² 0 min 0 min 0 W/m² 3,2 km/h (1 Bft) 100,00 %
24.02.2026 19:56 11,2 °C 10,6 °C 7,2 °C 99 % 1020,8 hPa 0,0 l/m² 0 min 0 min 0 W/m² 3,2 km/h (1 Bft) 100,00 %
24.02.2026 19:58 11,2 °C 10,6 °C 7,2 °C 99 % 1020,9 hPa 0,0 l/m² 0 min 0 min 0 W/m² 3,2 km/h (1 Bft) 100,00 %
24.02.2026 20:00 11,1 °C 10,6 °C 7,2 °C 99 % 1020,8 hPa 0,0 l/m² 0 min 0 min 0 W/m² 3,2 km/h (1 Bft) 100,00 %
24.02.2026 20:02 11,1 °C 10,6 °C 7,2 °C 99 % 1020,8 hPa 0,0 l/m² 0 min 0 min 0 W/m² 3,2 km/h (1 Bft) 100,00 %
24.02.2026 20:04 11,1 °C 10,6 °C 7,2 °C 99 % 1020,9 hPa 0,0 l/m² 0 min 0 min 0 W/m² 3,2 km/h (1 Bft) 100,00 %
24.02.2026 20:06 11,1 °C 10,6 °C 7,2 °C 98 % 1020,8 hPa 0,0 l/m² 0 min 0 min 0 W/m² 6,4 km/h (2 Bft) 100,00 %
24.02.2026 20:08 11,1 °C 10,6 °C 7,2 °C 98 % 1020,8 hPa 0,0 l/m² 0 min 0 min 0 W/m² 3,2 km/h (1 Bft) 97,56 %
24.02.2026 20:10 11,1 °C 10,6 °C 7,2 °C 98 % 1020,8 hPa 0,0 l/m² 0 min 0 min 0 W/m² 3,2 km/h (1 Bft) 100,00 %
24.02.2026 20:12 11,1 °C 10,6 °C 7,2 °C 99 % 1020,9 hPa 0,0 l/m² 0 min 0 min 0 W/m² 3,2 km/h (1 Bft) 100,00 %
24.02.2026 20:14 11,1 °C 10,6 °C 7,2 °C 99 % 1020,8 hPa 0,0 l/m² 0 min 0 min 0 W/m² 3,2 km/h (1 Bft) 100,00 %
24.02.2026 20:16 11,1 °C 10,6 °C 7,2 °C 99 % 1020,9 hPa 0,0 l/m² 0 min 0 min 0 W/m² 3,2 km/h (1 Bft) 100,00 %
24.02.2026 20:18 11,1 °C 10,6 °C 7,2 °C 99 % 1020,9 hPa 0,0 l/m² 0 min 0 min 0 W/m² 6,4 km/h (2 Bft) 100,00 %
24.02.2026 20:20 11,1 °C 10,6 °C 7,2 °C 99 % 1020,9 hPa 0,0 l/m² 0 min 0 min 0 W/m² 0,0 km/h (0 Bft) 97,83 %
24.02.2026 20:22 11,1 °C 10,6 °C 7,2 °C 99 % 1020,9 hPa 0,0 l/m² 0 min 0 min 0 W/m² 0,0 km/h (0 Bft) 100,00 %
24.02.2026 20:24 11,1 °C 10,6 °C 7,2 °C 99 % 1020,9 hPa 0,0 l/m² 0 min 0 min 0 W/m² 0,0 km/h (0 Bft) 100,00 %
24.02.2026 20:26 11,1 °C 10,6 °C 7,2 °C 99 % 1020,9 hPa 0,0 l/m² 0 min 0 min 0 W/m² 6,4 km/h (2 Bft) 100,00 %
24.02.2026 20:28 11,1 °C 10,6 °C 7,2 °C 99 % 1021,0 hPa 0,0 l/m² 0 min 0 min 0 W/m² 6,4 km/h (2 Bft) 97,87 %
24.02.2026 20:30 11,1 °C 10,6 °C 7,2 °C 99 % 1020,9 hPa 0,0 l/m² 0 min 0 min 0 W/m² 3,2 km/h (1 Bft) 100,00 %
24.02.2026 20:32 11,1 °C 10,6 °C 7,2 °C 99 % 1021,0 hPa 0,0 l/m² 0 min 0 min 0 W/m² 6,4 km/h (2 Bft) 100,00 %
24.02.2026 20:34 11,1 °C 10,6 °C 7,2 °C 99 % 1021,0 hPa 0,0 l/m² 0 min 0 min 0 W/m² 6,4 km/h (2 Bft) 100,00 %
24.02.2026 20:36 11,1 °C 10,6 °C 7,2 °C 99 % 1021,0 hPa 0,0 l/m² 0 min 0 min 0 W/m² 6,4 km/h (2 Bft) 100,00 %
24.02.2026 20:38 11,1 °C 10,6 °C 7,2 °C 99 % 1021,0 hPa 0,0 l/m² 0 min 0 min 0 W/m² 6,4 km/h (2 Bft) 100,00 %
24.02.2026 20:40 11,0 °C 10,6 °C 7,2 °C 99 % 1021,0 hPa 0,0 l/m² 0 min 0 min 0 W/m² 6,4 km/h (2 Bft) 100,00 %
24.02.2026 20:42 11,0 °C 10,6 °C 7,2 °C 99 % 1021,0 hPa 0,0 l/m² 0 min 0 min 0 W/m² 3,2 km/h (1 Bft) 97,83 %
24.02.2026 20:44 11,0 °C 10,6 °C 7,2 °C 99 % 1021,0 hPa 0,0 l/m² 0 min 0 min 0 W/m² 12,9 km/h (3 Bft) 100,00 %
24.02.2026 20:46 11,0 °C 10,6 °C 7,2 °C 99 % 1021,0 hPa 0,0 l/m² 0 min 0 min 0 W/m² 12,9 km/h (3 Bft) 97,87 %
24.02.2026 20:48 11,0 °C 10,6 °C 7,2 °C 99 % 1021,0 hPa 0,0 l/m² 0 min 0 min 0 W/m² 6,4 km/h (2 Bft) 100,00 %
24.02.2026 20:50 11,0 °C 10,6 °C 7,2 °C 99 % 1020,9 hPa 0,0 l/m² 0 min 0 min 0 W/m² 6,4 km/h (2 Bft) 97,87 %
24.02.2026 20:52 11,0 °C 10,6 °C 7,2 °C 99 % 1020,9 hPa 0,0 l/m² 0 min 0 min 0 W/m² 3,2 km/h (1 Bft) 91,49 %
24.02.2026 20:54 11,0 °C 10,6 °C 7,2 °C 99 % 1021,0 hPa 0,0 l/m² 0 min 0 min 0 W/m² 6,4 km/h (2 Bft) 97,67 %
24.02.2026 20:56 11,0 °C 10,6 °C 7,2 °C 99 % 1021,0 hPa 0,0 l/m² 0 min 0 min 0 W/m² 3,2 km/h (1 Bft) 95,74 %
24.02.2026 20:58 10,9 °C 10,6 °C 7,2 °C 99 % 1021,0 hPa 0,0 l/m² 0 min 0 min 0 W/m² 6,4 km/h (2 Bft) 97,96 %
24.02.2026 21:00 10,9 °C 10,6 °C 7,2 °C 99 % 1021,0 hPa 0,0 l/m² 0 min 0 min 0 W/m² 6,4 km/h (2 Bft) 95,74 %
24.02.2026 21:02 10,9 °C 10,6 °C 7,2 °C 99 % 1021,0 hPa 0,0 l/m² 0 min 0 min 0 W/m² 3,2 km/h (1 Bft) 93,62 %
24.02.2026 21:04 10,9 °C 10,6 °C 7,2 °C 99 % 1020,9 hPa 0,0 l/m² 0 min 0 min 0 W/m² 6,4 km/h (2 Bft) 95,83 %
24.02.2026 21:06 11,0 °C 10,6 °C 7,2 °C 99 % 1020,9 hPa 0,0 l/m² 0 min 0 min 0 W/m² 6,4 km/h (2 Bft) 91,30 %
24.02.2026 21:08 10,9 °C 10,6 °C 7,2 °C 99 % 1020,8 hPa 0,0 l/m² 0 min 0 min 0 W/m² 6,4 km/h (2 Bft) 95,83 %
24.02.2026 21:10 10,9 °C 10,6 °C 7,2 °C 99 % 1020,8 hPa 0,0 l/m² 0 min 0 min 0 W/m² 6,4 km/h (2 Bft) 95,74 %
24.02.2026 21:12 10,9 °C 10,6 °C 7,2 °C 99 % 1020,8 hPa 0,0 l/m² 0 min 0 min 0 W/m² 3,2 km/h (1 Bft) 95,74 %
24.02.2026 21:14 10,9 °C 10,6 °C 7,2 °C 99 % 1020,8 hPa 0,0 l/m² 0 min 0 min 0 W/m² 6,4 km/h (2 Bft) 95,74 %
24.02.2026 21:16 10,9 °C 10,0 °C 7,2 °C 99 % 1020,7 hPa 0,0 l/m² 0 min 0 min 0 W/m² 6,4 km/h (2 Bft) 95,74 %
24.02.2026 21:18 10,9 °C 10,0 °C 7,2 °C 99 % 1020,7 hPa 0,0 l/m² 0 min 0 min 0 W/m² 6,4 km/h (2 Bft) 95,65 %
24.02.2026 21:20 10,9 °C 10,0 °C 7,2 °C 99 % 1020,7 hPa 0,0 l/m² 0 min 0 min 0 W/m² 6,4 km/h (2 Bft) 93,62 %
24.02.2026 21:22 10,9 °C 10,0 °C 7,2 °C 99 % 1020,7 hPa 0,0 l/m² 0 min 0 min 0 W/m² 6,4 km/h (2 Bft) 95,74 %
24.02.2026 21:24 10,9 °C 10,0 °C 7,2 °C 99 % 1020,7 hPa 0,0 l/m² 0 min 0 min 0 W/m² 6,4 km/h (2 Bft) 97,87 %
24.02.2026 21:26 10,9 °C 10,0 °C 7,2 °C 99 % 1020,7 hPa 0,0 l/m² 0 min 0 min 0 W/m² 6,4 km/h (2 Bft) 97,87 %
24.02.2026 21:28 10,9 °C 10,0 °C 7,2 °C 99 % 1020,7 hPa 0,0 l/m² 0 min 0 min 0 W/m² 6,4 km/h (2 Bft) 95,74 %
24.02.2026 21:30 10,9 °C 10,0 °C 7,2 °C 99 % 1020,7 hPa 0,0 l/m² 0 min 0 min 0 W/m² 6,4 km/h (2 Bft) 97,83 %
24.02.2026 21:32 10,8 °C 10,0 °C 7,2 °C 99 % 1020,7 hPa 0,0 l/m² 0 min 0 min 0 W/m² 6,4 km/h (2 Bft) 95,74 %
24.02.2026 21:34 10,8 °C 10,0 °C 7,2 °C 99 % 1020,7 hPa 0,0 l/m² 0 min 0 min 0 W/m² 6,4 km/h (2 Bft) 97,87 %
24.02.2026 21:36 10,8 °C 10,0 °C 7,2 °C 99 % 1020,7 hPa 0,0 l/m² 0 min 0 min 0 W/m² 3,2 km/h (1 Bft) 97,87 %
24.02.2026 21:38 10,8 °C 10,0 °C 7,2 °C 99 % 1020,7 hPa 0,0 l/m² 0 min 0 min 0 W/m² 3,2 km/h (1 Bft) 95,74 %
24.02.2026 21:40 10,8 °C 10,0 °C 7,2 °C 99 % 1020,7 hPa 0,0 l/m² 0 min 0 min 0 W/m² 3,2 km/h (1 Bft) 95,65 %
24.02.2026 21:42 10,8 °C 10,0 °C 7,2 °C 99 % 1020,7 hPa 0,0 l/m² 0 min 0 min 0 W/m² 3,2 km/h (1 Bft) 91,49 %
24.02.2026 21:44 10,8 °C 10,0 °C 7,2 °C 99 % 1020,7 hPa 0,0 l/m² 0 min 0 min 0 W/m² 6,4 km/h (2 Bft) 95,74 %
24.02.2026 21:46 10,8 °C 10,0 °C 7,2 °C 99 % 1020,7 hPa 0,0 l/m² 0 min 0 min 0 W/m² 3,2 km/h (1 Bft) 97,87 %
24.02.2026 21:48 10,8 °C 10,0 °C 7,2 °C 99 % 1020,7 hPa 0,0 l/m² 0 min 0 min 0 W/m² 3,2 km/h (1 Bft) 97,87 %
24.02.2026 21:50 10,8 °C 10,0 °C 7,2 °C 99 % 1020,8 hPa 0,0 l/m² 0 min 0 min 0 W/m² 3,2 km/h (1 Bft) 97,87 %
24.02.2026 21:52 10,8 °C 10,0 °C 7,2 °C 99 % 1020,7 hPa 0,0 l/m² 0 min 0 min 0 W/m² 3,2 km/h (1 Bft) 97,83 %
24.02.2026 21:54 10,7 °C 10,0 °C 6,7 °C 99 % 1020,8 hPa 0,0 l/m² 0 min 0 min 0 W/m² 0,0 km/h (0 Bft) 97,87 %
24.02.2026 21:56 10,7 °C 10,0 °C 6,7 °C 99 % 1020,8 hPa 0,0 l/m² 0 min 0 min 0 W/m² 0,0 km/h (0 Bft) 95,74 %
24.02.2026 21:58 10,7 °C 10,0 °C 6,7 °C 99 % 1020,8 hPa 0,0 l/m² 0 min 0 min 0 W/m² 0,0 km/h (0 Bft) 97,67 %
24.02.2026 22:00 10,7 °C 10,0 °C 6,7 °C 99 % 1020,8 hPa 0,0 l/m² 0 min 0 min 0 W/m² 0,0 km/h (0 Bft) 97,87 %
24.02.2026 22:02 10,7 °C 10,0 °C 6,7 °C 99 % 1020,8 hPa 0,0 l/m² 0 min 0 min 0 W/m² 6,4 km/h (2 Bft) 95,74 %
24.02.2026 22:04 10,7 °C 10,0 °C 6,7 °C 99 % 1020,8 hPa 0,0 l/m² 0 min 0 min 0 W/m² 6,4 km/h (2 Bft) 96,00 %
24.02.2026 22:06 10,7 °C 10,0 °C 6,7 °C 99 % 1020,8 hPa 0,0 l/m² 0 min 0 min 0 W/m² 6,4 km/h (2 Bft) 97,87 %
24.02.2026 22:08 10,7 °C 10,0 °C 6,7 °C 99 % 1020,8 hPa 0,0 l/m² 0 min 0 min 0 W/m² 3,2 km/h (1 Bft) 97,87 %
24.02.2026 22:10 10,7 °C 10,0 °C 6,7 °C 99 % 1020,8 hPa 0,0 l/m² 0 min 0 min 0 W/m² 3,2 km/h (1 Bft) 95,74 %
24.02.2026 22:12 10,6 °C 9,4 °C 6,7 °C 99 % 1020,8 hPa 0,0 l/m² 0 min 0 min 0 W/m² 0,0 km/h (0 Bft) 97,87 %
24.02.2026 22:14 10,6 °C 9,4 °C 6,7 °C 99 % 1020,7 hPa 0,0 l/m² 0 min 0 min 0 W/m² 3,2 km/h (1 Bft) 97,87 %
24.02.2026 22:16 10,6 °C 9,4 °C 6,7 °C 99 % 1020,8 hPa 0,0 l/m² 0 min 0 min 0 W/m² 3,2 km/h (1 Bft) 97,87 %
24.02.2026 22:18 10,6 °C 9,4 °C 6,7 °C 99 % 1020,8 hPa 0,0 l/m² 0 min 0 min 0 W/m² 3,2 km/h (1 Bft) 95,74 %
24.02.2026 22:20 10,5 °C 9,4 °C 6,7 °C 99 % 1020,8 hPa 0,0 l/m² 0 min 0 min 0 W/m² 0,0 km/h (0 Bft) 97,83 %
24.02.2026 22:22 10,5 °C 9,4 °C 6,7 °C 99 % 1020,8 hPa 0,0 l/m² 0 min 0 min 0 W/m² 3,2 km/h (1 Bft) 97,87 %
24.02.2026 22:24 10,4 °C 9,4 °C 6,7 °C 99 % 1020,8 hPa 0,0 l/m² 0 min 0 min 0 W/m² 3,2 km/h (1 Bft) 97,87 %
24.02.2026 22:26 10,4 °C 9,4 °C 6,7 °C 99 % 1020,8 hPa 0,0 l/m² 0 min 0 min 0 W/m² 3,2 km/h (1 Bft) 97,87 %
24.02.2026 22:28 10,4 °C 9,4 °C 6,7 °C 99 % 1020,9 hPa 0,0 l/m² 0 min 0 min 0 W/m² 3,2 km/h (1 Bft) 97,87 %
24.02.2026 22:30 10,4 °C 9,4 °C 6,7 °C 99 % 1020,9 hPa 0,0 l/m² 0 min 0 min 0 W/m² 3,2 km/h (1 Bft) 100,00 %
24.02.2026 22:32 10,4 °C 9,4 °C 6,7 °C 99 % 1020,9 hPa 0,0 l/m² 0 min 0 min 0 W/m² 0,0 km/h (0 Bft) 97,83 %
24.02.2026 22:34 10,4 °C 9,4 °C 6,7 °C 99 % 1020,9 hPa 0,0 l/m² 0 min 0 min 0 W/m² 0,0 km/h (0 Bft) 100,00 %
24.02.2026 22:36 10,4 °C 9,4 °C 6,7 °C 99 % 1020,9 hPa 0,0 l/m² 0 min 0 min 0 W/m² 0,0 km/h (0 Bft) 100,00 %
24.02.2026 22:38 10,4 °C 9,4 °C 6,7 °C 99 % 1020,8 hPa 0,0 l/m² 0 min 0 min 0 W/m² 0,0 km/h (0 Bft) 97,87 %
24.02.2026 22:40 10,4 °C 9,4 °C 6,7 °C 99 % 1020,9 hPa 0,0 l/m² 0 min 0 min 0 W/m² 0,0 km/h (0 Bft) 100,00 %
24.02.2026 22:42 10,3 °C 9,4 °C 6,7 °C 99 % 1020,9 hPa 0,0 l/m² 0 min 0 min 0 W/m² 0,0 km/h (0 Bft) 100,00 %
24.02.2026 22:44 10,3 °C 9,4 °C 6,1 °C 99 % 1020,9 hPa 0,0 l/m² 0 min 0 min 0 W/m² 0,0 km/h (0 Bft) 97,83 %
24.02.2026 22:46 10,3 °C 9,4 °C 6,1 °C 99 % 1020,9 hPa 0,0 l/m² 0 min 0 min 0 W/m² 0,0 km/h (0 Bft) 95,74 %
24.02.2026 22:48 10,3 °C 8,9 °C 6,1 °C 99 % 1020,9 hPa 0,0 l/m² 0 min 0 min 0 W/m² 0,0 km/h (0 Bft) 95,74 %
24.02.2026 22:50 10,3 °C 8,9 °C 6,1 °C 99 % 1020,9 hPa 0,0 l/m² 0 min 0 min 0 W/m² 0,0 km/h (0 Bft) 95,74 %
24.02.2026 22:52 10,2 °C 8,9 °C 6,1 °C 99 % 1020,9 hPa 0,0 l/m² 0 min 0 min 0 W/m² 0,0 km/h (0 Bft) 97,87 %
24.02.2026 22:54 10,2 °C 8,9 °C 6,1 °C 99 % 1020,9 hPa 0,0 l/m² 0 min 0 min 0 W/m² 0,0 km/h (0 Bft) 97,92 %
24.02.2026 22:56 10,2 °C 8,9 °C 6,1 °C 99 % 1020,9 hPa 0,0 l/m² 0 min 0 min 0 W/m² 0,0 km/h (0 Bft) 97,87 %
24.02.2026 22:58 10,2 °C 8,9 °C 6,1 °C 99 % 1021,0 hPa 0,0 l/m² 0 min 0 min 0 W/m² 0,0 km/h (0 Bft) 97,87 %
24.02.2026 23:00 10,1 °C 8,9 °C 6,1 °C 99 % 1021,0 hPa 0,0 l/m² 0 min 0 min 0 W/m² 0,0 km/h (0 Bft) 97,87 %
24.02.2026 23:02 10,1 °C 8,9 °C 6,1 °C 99 % 1021,0 hPa 0,0 l/m² 0 min 0 min 0 W/m² 3,2 km/h (1 Bft) 97,83 %
24.02.2026 23:04 10,1 °C 9,4 °C 6,1 °C 99 % 1021,0 hPa 0,0 l/m² 0 min 0 min 0 W/m² 3,2 km/h (1 Bft) 97,87 %
24.02.2026 23:06 10,1 °C 9,4 °C 6,1 °C 99 % 1021,0 hPa 0,0 l/m² 0 min 0 min 0 W/m² 3,2 km/h (1 Bft) 93,88 %
24.02.2026 23:08 10,1 °C 9,4 °C 6,1 °C 99 % 1020,9 hPa 0,0 l/m² 0 min 0 min 0 W/m² 3,2 km/h (1 Bft) 97,92 %
24.02.2026 23:10 10,1 °C 9,4 °C 6,1 °C 99 % 1021,0 hPa 0,0 l/m² 0 min 0 min 0 W/m² 3,2 km/h (1 Bft) 97,87 %
24.02.2026 23:12 10,1 °C 9,4 °C 6,1 °C 99 % 1021,0 hPa 0,0 l/m² 0 min 0 min 0 W/m² 3,2 km/h (1 Bft) 97,30 %
24.02.2026 23:14 10,1 °C 9,4 °C 6,7 °C 99 % 1020,9 hPa 0,0 l/m² 0 min 0 min 0 W/m² 3,2 km/h (1 Bft) 100,00 %
24.02.2026 23:16 10,1 °C 9,4 °C 6,7 °C 99 % 1020,9 hPa 0,0 l/m² 0 min 0 min 0 W/m² 6,4 km/h (2 Bft) 97,87 %
24.02.2026 23:18 10,1 °C 9,4 °C 6,7 °C 99 % 1020,9 hPa 0,0 l/m² 0 min 0 min 0 W/m² 6,4 km/h (2 Bft) 97,87 %
24.02.2026 23:20 10,1 °C 9,4 °C 6,7 °C 99 % 1020,9 hPa 0,0 l/m² 0 min 0 min 0 W/m² 6,4 km/h (2 Bft) 100,00 %
24.02.2026 23:22 10,1 °C 9,4 °C 6,7 °C 99 % 1020,9 hPa 0,0 l/m² 0 min 0 min 0 W/m² 3,2 km/h (1 Bft) 100,00 %
24.02.2026 23:24 10,1 °C 9,4 °C 6,7 °C 99 % 1020,9 hPa 0,0 l/m² 0 min 0 min 0 W/m² 6,4 km/h (2 Bft) 100,00 %
24.02.2026 23:26 10,1 °C 9,4 °C 6,7 °C 99 % 1020,9 hPa 0,0 l/m² 0 min 0 min 0 W/m² 6,4 km/h (2 Bft) 97,87 %
24.02.2026 23:28 10,1 °C 9,4 °C 6,7 °C 99 % 1020,9 hPa 0,0 l/m² 0 min 0 min 0 W/m² 3,2 km/h (1 Bft) 97,87 %
24.02.2026 23:30 10,1 °C 9,4 °C 6,7 °C 99 % 1020,9 hPa 0,0 l/m² 0 min 0 min 0 W/m² 3,2 km/h (1 Bft) 100,00 %
24.02.2026 23:32 10,1 °C 9,4 °C 6,7 °C 99 % 1020,9 hPa 0,0 l/m² 0 min 0 min 0 W/m² 3,2 km/h (1 Bft) 100,00 %
24.02.2026 23:34 10,1 °C 9,4 °C 6,7 °C 99 % 1020,9 hPa 0,0 l/m² 0 min 0 min 0 W/m² 6,4 km/h (2 Bft) 97,87 %
24.02.2026 23:36 10,1 °C 9,4 °C 6,7 °C 99 % 1020,9 hPa 0,0 l/m² 0 min 0 min 0 W/m² 6,4 km/h (2 Bft) 100,00 %
24.02.2026 23:38 10,1 °C 9,4 °C 6,7 °C 99 % 1020,8 hPa 0,0 l/m² 0 min 0 min 0 W/m² 0,0 km/h (0 Bft) 97,87 %
24.02.2026 23:40 10,1 °C 9,4 °C 6,7 °C 99 % 1020,8 hPa 0,0 l/m² 0 min 0 min 0 W/m² 0,0 km/h (0 Bft) 97,87 %
24.02.2026 23:42 10,1 °C 9,4 °C 6,7 °C 99 % 1020,9 hPa 0,0 l/m² 0 min 0 min 0 W/m² 9,7 km/h (2 Bft) 97,87 %
24.02.2026 23:44 10,1 °C 9,4 °C 6,7 °C 99 % 1020,9 hPa 0,0 l/m² 0 min 0 min 0 W/m² 12,9 km/h (3 Bft) 97,83 %
24.02.2026 23:46 10,1 °C 9,4 °C 6,7 °C 99 % 1021,0 hPa 0,0 l/m² 0 min 0 min 0 W/m² 9,7 km/h (2 Bft) 97,87 %
24.02.2026 23:48 10,2 °C 9,4 °C 6,7 °C 99 % 1021,0 hPa 0,2 l/m² 0 min 0 min 0 W/m² 3,2 km/h (1 Bft) 95,74 %
24.02.2026 23:50 10,2 °C 9,4 °C 6,7 °C 99 % 1021,0 hPa 0,0 l/m² 0 min 0 min 0 W/m² 6,4 km/h (2 Bft) 95,74 %
24.02.2026 23:52 10,2 °C 9,4 °C 6,7 °C 99 % 1021,0 hPa 0,0 l/m² 0 min 0 min 0 W/m² 16,1 km/h (3 Bft) 93,62 %
24.02.2026 23:54 10,2 °C 9,4 °C 6,7 °C 99 % 1021,0 hPa 0,0 l/m² 0 min 0 min 0 W/m² 3,2 km/h (1 Bft) 97,87 %
24.02.2026 23:56 10,2 °C 9,4 °C 6,7 °C 99 % 1020,9 hPa 0,0 l/m² 0 min 0 min 0 W/m² 6,4 km/h (2 Bft) 97,87 %
24.02.2026 23:58 10,2 °C 9,4 °C 6,7 °C 99 % 1020,9 hPa 0,0 l/m² 0 min 0 min 0 W/m² 6,4 km/h (2 Bft) 97,87 %
_ Min-Zeit 07:12 06:14 00:00 00:00 00:00 - - - - 04:28 11:00
Minimum _ 8,7 °C 7,8 °C 4,4 °C 96 % 1016,5 hPa - - - - 0,0 km/h (0 Bft) 48,84 %
_ Max-Zeit 15:52 15:04 15:04 08:44 20:28 23:48 09:02 01:48 14:28 02:26 00:14
Maximum _ 12,1 °C 12,8 °C 8,9 °C 99 % 1021,0 hPa 0,2 l/m² 2 min 2 min 168 W/m² 22,5 km/h
SO (4 Bft)
100,00 %
Durchschnitt _ 10,2 °C 9,8 °C 6,2 °C 98 % 1019,3 hPa #0,2 l/m² #4 min. #8 min. 74 W/m² 5,3 km/h (1 Bft) 97,40 %
© 2026 W. Hausmann